GFSNE_prec_precacc24_192.txt.gz
Total_Precipitation_Accumulation
0.00 0.00 0.00 0.00 0.00 0.00 0.00 0.00 0.01 0.01 0.00 0.00 0.00 0.00 0.00 0.00 0.00 0.01 0.02 0.05 0.03 0.03 0.03 0.04 0.04 0.05 0.05 0.06 0.07 0.09 0.21 0.60 1.14 1.16 1.45 2.04 2.03 1.75
0.00 0.00 0.00 0.00 0.00 0.00 0.00 0.00 0.00 0.01 0.01 0.00 0.00 0.00 0.00 0.00 0.00 0.01 0.04 0.04 0.04 0.03 0.04 0.04 0.03 0.04 0.04 0.04 0.05 0.07 0.09 0.12 0.34 0.61 0.71 0.80 1.35 1.79
0.00 0.00 0.00 0.00 0.00 0.00 0.00 0.00 0.00 0.00 0.01 0.00 0.00 0.00 0.00 0.00 0.00 0.01 0.02 0.01 0.01 0.03 0.03 0.04 0.04 0.04 0.04 0.05 0.05 0.07 0.10 0.12 0.15 0.16 0.19 0.23 0.24 0.66
0.00 0.00 0.00 0.00 0.00 0.00 0.00 0.00 0.00 0.00 0.00 0.00 0.00 0.00 0.00 0.00 0.00 0.00 0.01 0.01 0.00 0.01 0.02 0.03 0.05 0.05 0.05 0.05 0.06 0.08 0.11 0.16 0.17 0.17 0.13 0.13 0.13 0.16
0.00 0.00 0.00 0.00 0.00 0.00 0.00 0.00 0.00 0.00 0.00 0.00 0.00 0.00 0.00 0.00 0.00 0.00 0.01 0.01 0.00 0.00 0.00 0.01 0.03 0.03 0.04 0.06 0.06 0.06 0.08 0.13 0.16 0.17 0.19 0.17 0.13 0.10
0.00 0.00 0.00 0.00 0.00 0.00 0.00 0.00 0.00 0.00 0.00 0.00 0.00 0.00 0.00 0.00 0.00 0.00 0.02 0.03 0.02 0.00 0.01 0.01 0.01 0.02 0.02 0.03 0.06 0.09 0.09 0.08 0.12 0.16 0.15 0.15 0.18 0.17
0.00 0.00 0.00 0.00 0.00 0.00 0.00 0.00 0.00 0.00 0.00 0.00 0.00 0.00 0.00 0.00 0.01 0.01 0.02 0.03 0.04 0.00 0.01 0.01 0.01 0.04 0.05 0.04 0.06 0.07 0.09 0.11 0.11 0.11 0.12 0.15 0.16 0.21
0.00 0.00 0.00 0.00 0.00 0.00 0.00 0.00 0.00 0.00 0.00 0.00 0.00 0.01 0.01 0.01 0.00 0.01 0.01 0.02 0.02 0.00 0.01 0.04 0.01 0.04 0.07 0.12 0.11 0.10 0.08 0.11 0.12 0.13 0.13 0.12 0.14 0.19
0.00 0.00 0.00 0.00 0.00 0.00 0.00 0.00 0.00 0.00 0.00 0.01 0.01 0.01 0.01 0.01 0.01 0.01 0.01 0.03 0.07 0.02 0.01 0.03 0.01 0.03 0.09 0.05 0.06 0.07 0.10 0.14 0.13 0.14 0.15 0.14 0.13 0.14
0.00 0.00 0.00 0.00 0.00 0.00 0.00 0.00 0.00 0.00 0.01 0.01 0.00 0.00 0.00 0.00 0.00 0.01 0.01 0.02 0.09 0.02 0.01 0.01 0.01 0.02 0.08 0.05 0.03 0.03 0.06 0.09 0.15 0.19 0.17 0.16 0.15 0.13
0.00 0.00 0.00 0.00 0.00 0.00 0.00 0.00 0.00 0.00 0.00 0.00 0.00 0.00 0.00 0.00 0.00 0.00 0.00 0.00 0.01 0.03 0.00 0.03 0.02 0.02 0.07 0.04 0.02 0.02 0.03 0.07 0.13 0.14 0.22 0.20 0.16 0.16
0.00 0.00 0.00 0.00 0.00 0.00 0.00 0.00 0.00 0.00 0.00 0.00 0.00 0.00 0.00 0.00 0.00 0.00 0.00 0.00 0.00 0.00 0.00 0.01 0.02 0.02 0.05 0.04 0.01 0.01 0.02 0.03 0.06 0.12 0.16 0.20 0.21 0.14
0.01 0.01 0.00 0.00 0.00 0.00 0.00 0.00 0.00 0.00 0.00 0.00 0.00 0.00 0.00 0.00 0.00 0.00 0.00 0.00 0.00 0.00 0.00 0.01 0.01 0.01 0.02 0.02 0.02 0.01 0.03 0.03 0.05 0.06 0.15 0.19 0.16 0.20
0.00 0.00 0.00 0.00 0.00 0.00 0.00 0.00 0.00 0.00 0.00 0.00 0.00 0.00 0.00 0.00 0.00 0.00 0.00 0.00 0.00 0.00 0.00 0.00 0.01 0.01 0.01 0.01 0.01 0.01 0.01 0.02 0.03 0.04 0.04 0.11 0.13 0.15
0.00 0.00 0.00 0.00 0.00 0.00 0.00 0.00 0.00 0.00 0.00 0.00 0.00 0.01 0.00 0.00 0.00 0.00 0.00 0.00 0.00 0.00 0.00 0.00 0.00 0.00 0.00 0.01 0.01 0.01 0.01 0.01 0.01 0.01 0.02 0.05 0.06 0.10
0.00 0.00 0.00 0.00 0.00 0.00 0.00 0.00 0.00 0.00 0.00 0.00 0.00 0.00 0.00 0.00 0.00 0.00 0.00 0.00 0.00 0.00 0.00 0.00 0.00 0.00 0.00 0.00 0.00 0.00 0.00 0.00 0.00 0.00 0.01 0.01 0.02 0.03
0.00 0.00 0.00 0.00 0.01 0.01 0.00 0.00 0.00 0.00 0.00 0.00 0.00 0.00 0.00 0.00 0.00 0.00 0.00 0.00 0.00 0.00 0.00 0.00 0.00 0.00 0.00 0.00 0.00 0.00 0.00 0.00 0.00 0.00 0.00 0.00 0.01 0.01
0.00 0.00 0.01 0.01 0.00 0.00 0.00 0.00 0.00 0.00 0.00 0.00 0.00 0.00 0.00 0.00 0.00 0.00 0.00 0.00 0.00 0.00 0.00 0.00 0.00 0.00 0.00 0.00 0.00 0.00 0.00 0.00 0.00 0.00 0.00 0.00 0.00 0.00
0.00 0.00 0.00 0.00 0.00 0.00 0.00 0.00 0.00 0.00 0.00 0.00 0.00 0.00 0.00 0.00 0.00 0.00 0.00 0.00 0.00 0.00 0.00 0.00 0.00 0.00 0.00 0.00 0.00 0.00 0.00 0.00 0.00 0.00 0.00 0.00 0.00 0.00
0.00 0.00 0.00 0.00 0.00 0.00 0.00 0.00 0.00 0.00 0.00 0.00 0.00 0.00 0.00 0.00 0.00 0.00 0.00 0.00 0.00 0.00 0.00 0.00 0.00 0.00 0.00 0.00 0.00 0.00 0.00 0.00 0.00 0.00 0.01 0.00 0.00 0.00
0.00 0.00 0.00 0.00 0.00 0.00 0.00 0.00 0.00 0.00 0.00 0.01 0.01 0.00 0.00 0.00 0.00 0.00 0.00 0.00 0.00 0.00 0.00 0.00 0.00 0.00 0.00 0.00 0.00 0.00 0.00 0.00 0.00 0.00 0.02 0.02 0.00 0.00
0.00 0.00 0.00 0.00 0.00 0.00 0.00 0.00 0.00 0.00 0.00 0.00 0.01 0.01 0.00 0.00 0.00 0.00 0.00 0.00 0.00 0.00 0.00 0.00 0.00 0.00 0.00 0.00 0.00 0.00 0.00 0.00 0.00 0.00 0.00 0.02 0.02 0.05
0.00 0.00 0.00 0.00 0.00 0.00 0.00 0.00 0.00 0.00 0.00 0.00 0.01 0.00 0.00 0.01 0.00 0.00 0.00 0.00 0.00 0.00 0.00 0.00 0.00 0.00 0.00 0.00 0.00 0.00 0.00 0.00 0.00 0.00 0.00 0.00 0.00 0.00

GFSNE_prec_precacc24_195.txt.gz
Total_Precipitation_Accumulation
0.00 0.00 0.00 0.00 0.00 0.00 0.00 0.00 0.00 0.00 0.00 0.00 0.00 0.00 0.00 0.00 0.00 0.00 0.01 0.04 0.03 0.03 0.03 0.04 0.04 0.05 0.05 0.05 0.06 0.07 0.07 0.08 0.19 0.59 1.13 1.42 1.63 1.58
0.00 0.00 0.00 0.00 0.00 0.00 0.00 0.00 0.00 0.00 0.00 0.00 0.00 0.00 0.00 0.00 0.00 0.00 0.02 0.02 0.03 0.02 0.03 0.04 0.03 0.04 0.03 0.04 0.04 0.06 0.07 0.08 0.07 0.10 0.18 0.43 0.73 1.21
0.00 0.00 0.00 0.00 0.00 0.00 0.00 0.00 0.00 0.00 0.00 0.00 0.00 0.00 0.00 0.00 0.00 0.00 0.01 0.00 0.00 0.01 0.02 0.03 0.03 0.03 0.03 0.03 0.04 0.05 0.05 0.06 0.11 0.10 0.08 0.09 0.15 0.26
0.00 0.00 0.00 0.00 0.00 0.00 0.00 0.00 0.00 0.00 0.00 0.00 0.00 0.00 0.00 0.00 0.00 0.00 0.01 0.01 0.00 0.00 0.01 0.02 0.03 0.03 0.04 0.04 0.04 0.05 0.06 0.07 0.07 0.12 0.12 0.11 0.13 0.14
0.00 0.00 0.00 0.00 0.00 0.00 0.00 0.00 0.00 0.00 0.00 0.00 0.00 0.00 0.00 0.00 0.00 0.00 0.00 0.00 0.00 0.00 0.00 0.00 0.03 0.02 0.02 0.04 0.04 0.03 0.06 0.08 0.09 0.10 0.12 0.15 0.13 0.10
0.00 0.00 0.00 0.00 0.00 0.00 0.00 0.00 0.00 0.00 0.00 0.00 0.00 0.00 0.00 0.00 0.00 0.00 0.01 0.01 0.01 0.00 0.00 0.00 0.00 0.01 0.01 0.01 0.03 0.05 0.06 0.06 0.07 0.10 0.10 0.10 0.15 0.16
0.00 0.00 0.00 0.00 0.00 0.00 0.00 0.00 0.00 0.00 0.00 0.00 0.00 0.00 0.00 0.00 0.00 0.00 0.00 0.00 0.02 0.00 0.00 0.00 0.00 0.00 0.00 0.02 0.02 0.02 0.03 0.07 0.08 0.06 0.08 0.11 0.12 0.17
0.00 0.00 0.00 0.00 0.00 0.00 0.00 0.00 0.00 0.00 0.00 0.00 0.00 0.01 0.01 0.01 0.00 0.01 0.00 0.01 0.01 0.00 0.00 0.02 0.00 0.02 0.01 0.02 0.05 0.04 0.03 0.05 0.07 0.08 0.07 0.06 0.09 0.16
0.00 0.00 0.00 0.00 0.00 0.00 0.00 0.00 0.00 0.00 0.00 0.00 0.01 0.01 0.01 0.00 0.00 0.00 0.00 0.01 0.05 0.01 0.00 0.01 0.00 0.01 0.06 0.01 0.01 0.02 0.02 0.03 0.04 0.06 0.07 0.07 0.05 0.06
0.00 0.00 0.00 0.00 0.00 0.00 0.00 0.00 0.00 0.00 0.01 0.01 0.00 0.00 0.00 0.00 0.00 0.00 0.00 0.00 0.04 0.02 0.00 0.00 0.00 0.00 0.05 0.01 0.00 0.00 0.01 0.01 0.05 0.07 0.07 0.08 0.07 0.06
0.01 0.00 0.00 0.00 0.00 0.00 0.00 0.00 0.00 0.00 0.00 0.00 0.00 0.00 0.00 0.00 0.00 0.00 0.00 0.00 0.00 0.02 0.00 0.01 0.00 0.00 0.04 0.02 0.00 0.00 0.00 0.00 0.02 0.04 0.09 0.09 0.07 0.07
0.03 0.02 0.00 0.00 0.00 0.00 0.00 0.00 0.00 0.00 0.00 0.00 0.00 0.00 0.00 0.00 0.00 0.00 0.00 0.00 0.00 0.00 0.00 0.00 0.01 0.00 0.02 0.01 0.00 0.00 0.00 0.00 0.00 0.02 0.04 0.08 0.10 0.07
0.04 0.02 0.00 0.00 0.00 0.00 0.00 0.00 0.00 0.00 0.00 0.00 0.00 0.00 0.00 0.00 0.00 0.00 0.00 0.00 0.00 0.00 0.00 0.00 0.01 0.00 0.00 0.00 0.00 0.00 0.00 0.00 0.00 0.00 0.01 0.05 0.07 0.11
0.04 0.02 0.01 0.00 0.00 0.00 0.00 0.00 0.00 0.00 0.00 0.00 0.00 0.00 0.00 0.00 0.00 0.00 0.00 0.00 0.00 0.00 0.00 0.00 0.00 0.01 0.00 0.00 0.00 0.00 0.00 0.00 0.00 0.00 0.00 0.02 0.02 0.05
0.02 0.01 0.01 0.00 0.00 0.00 0.00 0.00 0.00 0.00 0.00 0.00 0.00 0.00 0.00 0.00 0.00 0.00 0.00 0.00 0.00 0.00 0.00 0.00 0.00 0.00 0.00 0.01 0.01 0.00 0.00 0.00 0.00 0.00 0.00 0.01 0.02 0.03
0.01 0.01 0.00 0.00 0.00 0.00 0.00 0.00 0.00 0.00 0.00 0.00 0.00 0.00 0.00 0.00 0.00 0.00 0.00 0.00 0.00 0.00 0.00 0.00 0.00 0.00 0.00 0.00 0.00 0.00 0.00 0.00 0.00 0.00 0.00 0.00 0.01 0.01
0.02 0.02 0.01 0.01 0.01 0.01 0.00 0.00 0.00 0.00 0.00 0.00 0.00 0.00 0.00 0.00 0.00 0.00 0.00 0.00 0.00 0.00 0.00 0.00 0.00 0.00 0.00 0.00 0.00 0.00 0.00 0.00 0.00 0.00 0.00 0.00 0.01 0.01
0.03 0.02 0.01 0.01 0.01 0.00 0.00 0.00 0.00 0.00 0.00 0.00 0.00 0.00 0.00 0.00 0.00 0.00 0.00 0.00 0.00 0.00 0.00 0.00 0.00 0.00 0.00 0.00 0.00 0.00 0.00 0.00 0.00 0.00 0.00 0.00 0.00 0.00
0.01 0.01 0.01 0.01 0.00 0.00 0.00 0.00 0.00 0.00 0.00 0.00 0.00 0.00 0.00 0.00 0.00 0.00 0.00 0.00 0.00 0.00 0.00 0.00 0.00 0.00 0.00 0.00 0.00 0.00 0.00 0.00 0.00 0.00 0.00 0.00 0.00 0.00
0.00 0.00 0.01 0.00 0.00 0.00 0.00 0.00 0.00 0.00 0.00 0.00 0.00 0.00 0.00 0.00 0.00 0.00 0.00 0.00 0.00 0.00 0.00 0.00 0.00 0.00 0.00 0.00 0.00 0.00 0.00 0.00 0.00 0.00 0.01 0.00 0.00 0.00
0.00 0.00 0.00 0.00 0.00 0.00 0.00 0.00 0.00 0.00 0.00 0.00 0.00 0.00 0.00 0.00 0.00 0.00 0.00 0.00 0.00 0.00 0.00 0.00 0.00 0.00 0.00 0.00 0.00 0.00 0.00 0.00 0.00 0.00 0.02 0.02 0.00 0.00
0.00 0.00 0.00 0.00 0.00 0.00 0.00 0.00 0.00 0.00 0.00 0.00 0.00 0.00 0.00 0.00 0.00 0.00 0.00 0.00 0.00 0.00 0.00 0.00 0.00 0.00 0.00 0.00 0.00 0.00 0.00 0.00 0.00 0.00 0.00 0.02 0.02 0.05
0.00 0.00 0.00 0.00 0.00 0.00 0.00 0.00 0.00 0.00 0.00 0.00 0.00 0.00 0.00 0.00 0.00 0.00 0.00 0.00 0.00 0.00 0.00 0.00 0.00 0.00 0.00 0.00 0.00 0.00 0.00 0.00 0.00 0.00 0.00 0.00 0.00 0.00

GFSNE_prec_precacc24_198.txt.gz
Total_Precipitation_Accumulation
0.00 0.00 0.00 0.00 0.00 0.00 0.00 0.00 0.00 0.00 0.00 0.00 0.00 0.00 0.00 0.00 0.00 0.00 0.00 0.02 0.02 0.02 0.02 0.03 0.03 0.04 0.04 0.04 0.06 0.07 0.07 0.08 0.09 0.09 0.14 0.44 0.88 0.82
0.00 0.00 0.00 0.00 0.00 0.00 0.00 0.00 0.00 0.00 0.00 0.00 0.00 0.00 0.00 0.00 0.00 0.00 0.02 0.01 0.01 0.01 0.02 0.03 0.02 0.03 0.02 0.03 0.04 0.05 0.06 0.06 0.06 0.06 0.08 0.10 0.16 0.39
0.00 0.00 0.00 0.00 0.00 0.00 0.00 0.00 0.00 0.00 0.00 0.00 0.00 0.00 0.00 0.00 0.00 0.00 0.01 0.00 0.00 0.00 0.02 0.03 0.02 0.02 0.02 0.02 0.03 0.04 0.04 0.04 0.05 0.05 0.05 0.07 0.10 0.12
0.01 0.02 0.01 0.00 0.00 0.00 0.00 0.00 0.00 0.00 0.00 0.00 0.00 0.00 0.00 0.00 0.00 0.00 0.00 0.01 0.00 0.00 0.00 0.01 0.03 0.02 0.01 0.02 0.02 0.03 0.05 0.05 0.04 0.04 0.04 0.05 0.10 0.14
0.03 0.04 0.02 0.00 0.00 0.00 0.00 0.00 0.00 0.00 0.00 0.00 0.00 0.00 0.00 0.00 0.00 0.00 0.00 0.00 0.00 0.00 0.00 0.00 0.02 0.01 0.01 0.01 0.01 0.02 0.03 0.04 0.06 0.05 0.05 0.06 0.07 0.07
0.02 0.02 0.00 0.00 0.00 0.00 0.00 0.00 0.00 0.00 0.00 0.00 0.00 0.00 0.00 0.00 0.00 0.00 0.00 0.00 0.01 0.00 0.00 0.00 0.00 0.00 0.00 0.00 0.01 0.01 0.02 0.04 0.04 0.05 0.05 0.05 0.07 0.09
0.02 0.00 0.00 0.00 0.00 0.00 0.00 0.00 0.00 0.00 0.00 0.00 0.00 0.00 0.00 0.00 0.00 0.00 0.00 0.00 0.01 0.00 0.00 0.00 0.00 0.00 0.00 0.00 0.00 0.01 0.01 0.03 0.04 0.04 0.04 0.05 0.07 0.08
0.02 0.00 0.00 0.00 0.00 0.00 0.00 0.00 0.00 0.00 0.00 0.00 0.00 0.01 0.01 0.00 0.00 0.00 0.00 0.00 0.01 0.00 0.00 0.00 0.00 0.01 0.01 0.00 0.00 0.00 0.01 0.01 0.02 0.03 0.03 0.03 0.04 0.09
0.01 0.00 0.00 0.00 0.00 0.00 0.00 0.00 0.00 0.00 0.00 0.00 0.00 0.00 0.00 0.00 0.00 0.00 0.00 0.00 0.02 0.00 0.00 0.01 0.00 0.00 0.04 0.00 0.00 0.00 0.00 0.01 0.02 0.03 0.03 0.02 0.02 0.02
0.00 0.00 0.00 0.00 0.00 0.00 0.00 0.00 0.00 0.00 0.01 0.01 0.00 0.00 0.00 0.00 0.00 0.00 0.00 0.00 0.01 0.01 0.00 0.00 0.00 0.00 0.03 0.01 0.00 0.00 0.00 0.00 0.01 0.02 0.03 0.03 0.01 0.02
0.01 0.01 0.00 0.00 0.00 0.00 0.00 0.00 0.00 0.00 0.00 0.00 0.00 0.00 0.00 0.00 0.00 0.00 0.00 0.00 0.00 0.01 0.00 0.00 0.00 0.00 0.01 0.01 0.01 0.00 0.00 0.00 0.00 0.01 0.03 0.03 0.02 0.01
0.05 0.04 0.02 0.02 0.02 0.01 0.00 0.00 0.00 0.00 0.00 0.00 0.00 0.00 0.00 0.00 0.00 0.00 0.00 0.00 0.00 0.01 0.00 0.00 0.00 0.00 0.01 0.01 0.00 0.00 0.00 0.00 0.00 0.00 0.01 0.03 0.03 0.02
0.10 0.09 0.05 0.04 0.04 0.01 0.00 0.00 0.00 0.00 0.00 0.00 0.00 0.00 0.00 0.00 0.00 0.00 0.00 0.00 0.00 0.00 0.00 0.00 0.00 0.00 0.00 0.00 0.00 0.00 0.00 0.00 0.00 0.00 0.00 0.01 0.02 0.05
0.12 0.11 0.08 0.07 0.05 0.01 0.00 0.00 0.00 0.00 0.00 0.00 0.00 0.00 0.00 0.00 0.00 0.00 0.00 0.00 0.00 0.00 0.00 0.00 0.00 0.00 0.00 0.00 0.00 0.00 0.00 0.00 0.00 0.00 0.00 0.00 0.00 0.01
0.07 0.06 0.05 0.05 0.02 0.00 0.00 0.00 0.00 0.00 0.00 0.00 0.00 0.00 0.00 0.00 0.00 0.00 0.00 0.00 0.00 0.00 0.00 0.00 0.00 0.00 0.00 0.00 0.00 0.00 0.00 0.00 0.00 0.00 0.00 0.00 0.00 0.02
0.08 0.07 0.06 0.03 0.00 0.00 0.00 0.00 0.00 0.00 0.00 0.00 0.00 0.00 0.00 0.00 0.00 0.00 0.00 0.00 0.00 0.00 0.00 0.00 0.00 0.00 0.00 0.00 0.00 0.00 0.00 0.00 0.00 0.00 0.00 0.00 0.00 0.00
0.07 0.07 0.06 0.03 0.01 0.01 0.01 0.00 0.00 0.00 0.00 0.00 0.00 0.00 0.00 0.00 0.00 0.00 0.00 0.00 0.00 0.00 0.00 0.00 0.00 0.00 0.00 0.00 0.00 0.00 0.00 0.00 0.00 0.00 0.00 0.00 0.00 0.00
0.08 0.06 0.04 0.02 0.01 0.01 0.01 0.00 0.00 0.00 0.00 0.00 0.00 0.00 0.00 0.00 0.00 0.00 0.00 0.00 0.00 0.00 0.00 0.00 0.00 0.00 0.00 0.00 0.00 0.00 0.00 0.00 0.00 0.00 0.00 0.00 0.00 0.00
0.05 0.04 0.03 0.02 0.01 0.01 0.01 0.00 0.00 0.00 0.00 0.00 0.00 0.00 0.00 0.00 0.00 0.00 0.00 0.00 0.00 0.00 0.00 0.00 0.00 0.00 0.00 0.00 0.00 0.00 0.00 0.00 0.00 0.00 0.00 0.00 0.00 0.00
0.03 0.02 0.02 0.02 0.01 0.01 0.00 0.00 0.00 0.00 0.00 0.00 0.00 0.00 0.00 0.00 0.00 0.00 0.00 0.00 0.00 0.00 0.00 0.00 0.00 0.00 0.00 0.00 0.00 0.00 0.00 0.00 0.00 0.00 0.01 0.00 0.00 0.00
0.02 0.02 0.02 0.02 0.00 0.00 0.00 0.00 0.00 0.00 0.00 0.00 0.00 0.00 0.00 0.00 0.00 0.00 0.00 0.00 0.00 0.00 0.00 0.00 0.00 0.00 0.00 0.00 0.00 0.00 0.00 0.00 0.00 0.00 0.02 0.02 0.00 0.00
0.04 0.03 0.02 0.01 0.00 0.00 0.00 0.00 0.00 0.00 0.00 0.00 0.00 0.00 0.00 0.00 0.00 0.00 0.00 0.00 0.00 0.00 0.00 0.00 0.00 0.00 0.00 0.00 0.00 0.00 0.00 0.00 0.00 0.00 0.00 0.02 0.02 0.04
0.03 0.03 0.02 0.01 0.00 0.00 0.00 0.00 0.00 0.00 0.00 0.00 0.00 0.00 0.00 0.00 0.00 0.00 0.00 0.00 0.00 0.00 0.00 0.00 0.00 0.00 0.00 0.00 0.00 0.00 0.00 0.00 0.00 0.00 0.00 0.00 0.00 0.00

GFSNE_prec_precacc24_204.txt.gz
Total_Precipitation_Accumulation
0.00 0.00 0.00 0.00 0.00 0.00 0.00 0.00 0.00 0.00 0.00 0.00 0.01 0.00 0.00 0.00 0.00 0.00 0.00 0.01 0.00 0.01 0.01 0.02 0.01 0.02 0.02 0.02 0.03 0.04 0.05 0.06 0.07 0.08 0.09 0.11 0.14 0.14
0.00 0.00 0.00 0.00 0.00 0.00 0.00 0.00 0.00 0.00 0.00 0.00 0.00 0.00 0.00 0.00 0.00 0.00 0.00 0.00 0.00 0.00 0.01 0.02 0.01 0.02 0.01 0.02 0.02 0.03 0.04 0.05 0.05 0.06 0.06 0.08 0.11 0.10
0.02 0.01 0.01 0.00 0.00 0.00 0.00 0.00 0.00 0.00 0.00 0.01 0.01 0.00 0.00 0.00 0.00 0.00 0.00 0.00 0.00 0.00 0.00 0.01 0.01 0.01 0.00 0.01 0.01 0.02 0.03 0.03 0.04 0.04 0.04 0.05 0.07 0.08
0.14 0.16 0.15 0.10 0.06 0.04 0.01 0.00 0.00 0.00 0.01 0.04 0.01 0.00 0.00 0.00 0.00 0.00 0.00 0.00 0.00 0.00 0.00 0.00 0.02 0.01 0.00 0.00 0.00 0.01 0.02 0.03 0.03 0.03 0.02 0.02 0.04 0.05
0.29 0.26 0.23 0.18 0.14 0.08 0.04 0.03 0.01 0.01 0.02 0.04 0.01 0.00 0.00 0.00 0.00 0.00 0.00 0.00 0.00 0.00 0.00 0.00 0.01 0.01 0.00 0.00 0.00 0.00 0.01 0.02 0.02 0.03 0.02 0.02 0.02 0.03
0.21 0.21 0.20 0.19 0.16 0.13 0.12 0.09 0.04 0.02 0.01 0.01 0.00 0.00 0.00 0.00 0.00 0.00 0.00 0.00 0.00 0.00 0.00 0.00 0.00 0.00 0.00 0.00 0.00 0.00 0.01 0.02 0.02 0.02 0.02 0.02 0.01 0.02
0.30 0.30 0.28 0.22 0.16 0.11 0.08 0.05 0.02 0.00 0.00 0.00 0.00 0.00 0.00 0.00 0.00 0.00 0.00 0.00 0.00 0.00 0.00 0.00 0.00 0.00 0.00 0.00 0.00 0.00 0.00 0.01 0.01 0.01 0.02 0.02 0.01 0.01
0.21 0.18 0.17 0.12 0.09 0.07 0.04 0.02 0.01 0.00 0.00 0.00 0.00 0.00 0.00 0.00 0.00 0.00 0.00 0.00 0.00 0.00 0.00 0.00 0.00 0.00 0.00 0.00 0.00 0.00 0.00 0.00 0.01 0.01 0.01 0.01 0.01 0.01
0.16 0.14 0.12 0.08 0.06 0.04 0.04 0.03 0.01 0.00 0.00 0.00 0.00 0.00 0.00 0.00 0.00 0.00 0.00 0.00 0.00 0.00 0.00 0.01 0.00 0.00 0.00 0.00 0.00 0.00 0.00 0.00 0.00 0.01 0.01 0.01 0.00 0.00
0.11 0.09 0.06 0.06 0.06 0.06 0.06 0.03 0.01 0.00 0.00 0.00 0.00 0.00 0.00 0.00 0.00 0.00 0.00 0.00 0.00 0.00 0.00 0.01 0.00 0.00 0.01 0.01 0.00 0.00 0.00 0.00 0.00 0.01 0.01 0.01 0.00 0.00
0.07 0.05 0.06 0.08 0.08 0.06 0.05 0.02 0.00 0.01 0.00 0.01 0.01 0.00 0.00 0.00 0.00 0.00 0.00 0.00 0.01 0.01 0.00 0.00 0.00 0.00 0.00 0.01 0.01 0.00 0.00 0.00 0.00 0.00 0.01 0.01 0.01 0.00
0.13 0.10 0.09 0.10 0.13 0.09 0.05 0.02 0.02 0.02 0.01 0.01 0.02 0.01 0.00 0.00 0.00 0.00 0.00 0.00 0.00 0.01 0.00 0.00 0.00 0.00 0.01 0.02 0.00 0.00 0.00 0.00 0.00 0.00 0.00 0.01 0.01 0.01
0.17 0.16 0.13 0.15 0.18 0.12 0.07 0.03 0.04 0.04 0.04 0.03 0.02 0.02 0.01 0.00 0.00 0.00 0.00 0.00 0.00 0.00 0.00 0.00 0.00 0.00 0.00 0.00 0.00 0.00 0.00 0.00 0.00 0.00 0.00 0.00 0.00 0.01
0.21 0.17 0.16 0.21 0.20 0.14 0.09 0.06 0.06 0.05 0.04 0.03 0.02 0.01 0.01 0.01 0.01 0.00 0.00 0.00 0.00 0.00 0.00 0.00 0.00 0.00 0.00 0.00 0.00 0.00 0.00 0.00 0.00 0.00 0.00 0.00 0.00 0.00
0.22 0.17 0.18 0.24 0.17 0.11 0.08 0.10 0.07 0.06 0.04 0.04 0.04 0.03 0.02 0.02 0.01 0.00 0.00 0.00 0.00 0.00 0.00 0.00 0.00 0.00 0.00 0.00 0.00 0.00 0.00 0.00 0.00 0.00 0.00 0.00 0.00 0.00
0.31 0.24 0.26 0.28 0.17 0.07 0.07 0.09 0.06 0.04 0.04 0.04 0.04 0.04 0.03 0.01 0.01 0.00 0.00 0.00 0.00 0.00 0.00 0.00 0.00 0.00 0.00 0.00 0.00 0.00 0.00 0.00 0.00 0.00 0.00 0.00 0.00 0.00
0.24 0.28 0.36 0.33 0.22 0.12 0.10 0.09 0.06 0.03 0.04 0.04 0.04 0.03 0.03 0.02 0.01 0.00 0.00 0.00 0.00 0.00 0.00 0.00 0.00 0.00 0.00 0.00 0.00 0.00 0.00 0.00 0.00 0.00 0.00 0.00 0.00 0.00
0.22 0.21 0.19 0.13 0.07 0.05 0.05 0.06 0.09 0.04 0.03 0.03 0.03 0.03 0.02 0.01 0.00 0.00 0.00 0.00 0.00 0.00 0.00 0.00 0.00 0.00 0.00 0.00 0.00 0.00 0.00 0.00 0.00 0.00 0.00 0.00 0.00 0.00
0.18 0.15 0.10 0.08 0.06 0.07 0.05 0.06 0.09 0.07 0.04 0.03 0.03 0.02 0.01 0.00 0.00 0.00 0.00 0.00 0.00 0.00 0.00 0.00 0.00 0.00 0.00 0.00 0.00 0.00 0.00 0.00 0.00 0.00 0.00 0.00 0.00 0.00
0.16 0.09 0.07 0.06 0.06 0.06 0.05 0.05 0.07 0.10 0.09 0.04 0.03 0.03 0.01 0.00 0.00 0.00 0.00 0.00 0.00 0.00 0.00 0.00 0.00 0.00 0.00 0.00 0.00 0.00 0.00 0.00 0.00 0.00 0.00 0.00 0.00 0.00
0.10 0.08 0.07 0.07 0.07 0.06 0.07 0.07 0.06 0.07 0.06 0.04 0.03 0.03 0.01 0.00 0.00 0.00 0.00 0.00 0.00 0.00 0.00 0.00 0.00 0.00 0.00 0.00 0.00 0.00 0.00 0.00 0.00 0.00 0.00 0.00 0.00 0.00
0.12 0.12 0.11 0.12 0.11 0.09 0.10 0.10 0.08 0.08 0.07 0.05 0.03 0.03 0.01 0.00 0.00 0.00 0.00 0.00 0.00 0.00 0.00 0.00 0.00 0.00 0.00 0.00 0.00 0.00 0.00 0.00 0.00 0.00 0.00 0.00 0.01 0.02
0.13 0.14 0.13 0.14 0.13 0.11 0.10 0.10 0.07 0.05 0.04 0.03 0.02 0.02 0.01 0.00 0.00 0.00 0.00 0.00 0.00 0.00 0.00 0.00 0.00 0.00 0.00 0.00 0.00 0.00 0.00 0.00 0.00 0.00 0.00 0.00 0.00 0.00

GFSNE_prec_precacc24_207.txt.gz
Total_Precipitation_Accumulation
0.00 0.00 0.00 0.00 0.00 0.00 0.00 0.00 0.00 0.00 0.00 0.00 0.01 0.00 0.00 0.00 0.00 0.00 0.00 0.00 0.00 0.00 0.00 0.01 0.01 0.01 0.01 0.01 0.02 0.03 0.04 0.05 0.06 0.07 0.07 0.10 0.13 0.13
0.02 0.02 0.02 0.01 0.01 0.00 0.00 0.00 0.00 0.00 0.00 0.00 0.00 0.00 0.00 0.00 0.00 0.00 0.00 0.00 0.00 0.00 0.00 0.01 0.01 0.01 0.00 0.01 0.01 0.02 0.03 0.04 0.04 0.05 0.06 0.07 0.10 0.10
0.05 0.07 0.08 0.08 0.06 0.01 0.00 0.00 0.00 0.00 0.01 0.02 0.02 0.01 0.01 0.00 0.00 0.00 0.00 0.00 0.00 0.00 0.00 0.00 0.01 0.01 0.00 0.00 0.00 0.01 0.02 0.02 0.03 0.03 0.03 0.04 0.06 0.08
0.16 0.18 0.19 0.17 0.15 0.13 0.13 0.12 0.12 0.12 0.11 0.10 0.06 0.03 0.01 0.00 0.00 0.00 0.00 0.00 0.00 0.00 0.00 0.00 0.01 0.01 0.00 0.00 0.00 0.00 0.01 0.02 0.02 0.02 0.01 0.02 0.03 0.05
0.36 0.37 0.36 0.32 0.29 0.25 0.21 0.16 0.11 0.08 0.07 0.08 0.06 0.04 0.04 0.01 0.00 0.00 0.00 0.00 0.00 0.00 0.00 0.00 0.00 0.00 0.00 0.00 0.00 0.00 0.00 0.01 0.01 0.02 0.02 0.01 0.01 0.02
0.26 0.29 0.32 0.30 0.26 0.22 0.21 0.16 0.09 0.04 0.04 0.05 0.07 0.07 0.05 0.01 0.00 0.00 0.00 0.00 0.00 0.00 0.00 0.00 0.00 0.00 0.00 0.00 0.00 0.00 0.00 0.01 0.01 0.01 0.02 0.02 0.01 0.01
0.32 0.33 0.33 0.28 0.22 0.17 0.13 0.08 0.04 0.01 0.01 0.01 0.02 0.03 0.02 0.00 0.00 0.00 0.00 0.00 0.00 0.00 0.00 0.00 0.00 0.00 0.00 0.00 0.00 0.00 0.00 0.00 0.01 0.01 0.01 0.01 0.01 0.01
0.24 0.20 0.19 0.16 0.13 0.10 0.07 0.03 0.02 0.01 0.01 0.01 0.02 0.02 0.01 0.00 0.00 0.00 0.00 0.00 0.00 0.00 0.00 0.00 0.00 0.00 0.00 0.00 0.00 0.00 0.00 0.00 0.00 0.01 0.01 0.01 0.01 0.01
0.16 0.14 0.12 0.09 0.08 0.05 0.06 0.04 0.03 0.02 0.02 0.02 0.02 0.02 0.01 0.00 0.00 0.00 0.00 0.00 0.00 0.00 0.00 0.01 0.00 0.00 0.00 0.00 0.00 0.00 0.00 0.00 0.00 0.00 0.01 0.01 0.00 0.00
0.11 0.09 0.07 0.06 0.07 0.06 0.07 0.05 0.03 0.03 0.03 0.03 0.02 0.01 0.01 0.00 0.00 0.00 0.00 0.00 0.00 0.00 0.00 0.01 0.00 0.00 0.01 0.01 0.00 0.00 0.00 0.00 0.00 0.00 0.00 0.01 0.00 0.00
0.07 0.05 0.06 0.08 0.09 0.07 0.06 0.05 0.03 0.02 0.02 0.02 0.01 0.00 0.00 0.00 0.00 0.00 0.00 0.00 0.01 0.01 0.00 0.00 0.00 0.00 0.00 0.01 0.01 0.00 0.00 0.00 0.00 0.00 0.01 0.01 0.01 0.00
0.13 0.10 0.10 0.11 0.14 0.12 0.09 0.06 0.06 0.05 0.02 0.02 0.02 0.01 0.00 0.00 0.00 0.00 0.00 0.00 0.00 0.01 0.00 0.00 0.00 0.00 0.01 0.02 0.00 0.00 0.00 0.00 0.00 0.00 0.00 0.00 0.01 0.01
0.17 0.17 0.14 0.16 0.19 0.15 0.11 0.08 0.07 0.06 0.06 0.04 0.04 0.03 0.02 0.01 0.00 0.00 0.00 0.00 0.00 0.00 0.00 0.00 0.00 0.00 0.00 0.00 0.00 0.00 0.00 0.00 0.00 0.00 0.00 0.00 0.00 0.01
0.22 0.18 0.17 0.23 0.22 0.18 0.14 0.10 0.09 0.10 0.07 0.05 0.04 0.04 0.03 0.03 0.02 0.01 0.00 0.00 0.00 0.00 0.00 0.00 0.00 0.00 0.00 0.00 0.00 0.00 0.00 0.00 0.00 0.00 0.00 0.00 0.00 0.00
0.22 0.18 0.19 0.28 0.23 0.18 0.13 0.15 0.09 0.10 0.07 0.04 0.05 0.06 0.05 0.05 0.04 0.02 0.01 0.00 0.00 0.00 0.00 0.00 0.00 0.00 0.00 0.00 0.00 0.00 0.00 0.00 0.00 0.00 0.00 0.00 0.00 0.00
0.33 0.28 0.31 0.37 0.26 0.12 0.11 0.14 0.10 0.10 0.06 0.05 0.07 0.10 0.10 0.09 0.06 0.02 0.01 0.00 0.00 0.00 0.00 0.00 0.00 0.00 0.00 0.00 0.00 0.00 0.00 0.00 0.00 0.00 0.00 0.00 0.00 0.00
0.27 0.34 0.46 0.45 0.31 0.17 0.15 0.12 0.11 0.11 0.11 0.09 0.09 0.09 0.09 0.07 0.05 0.02 0.02 0.01 0.00 0.00 0.00 0.00 0.00 0.00 0.00 0.00 0.00 0.00 0.00 0.00 0.00 0.00 0.00 0.00 0.00 0.00
0.25 0.24 0.21 0.17 0.10 0.07 0.06 0.09 0.15 0.11 0.08 0.08 0.09 0.08 0.07 0.05 0.03 0.02 0.01 0.00 0.00 0.00 0.00 0.00 0.00 0.00 0.00 0.00 0.00 0.00 0.00 0.00 0.00 0.00 0.00 0.00 0.00 0.00
0.22 0.16 0.11 0.10 0.09 0.08 0.06 0.07 0.14 0.11 0.07 0.08 0.06 0.05 0.04 0.03 0.02 0.01 0.00 0.00 0.00 0.00 0.00 0.00 0.00 0.00 0.00 0.00 0.00 0.00 0.00 0.00 0.00 0.00 0.00 0.00 0.00 0.00
0.18 0.10 0.08 0.08 0.10 0.11 0.07 0.07 0.13 0.17 0.16 0.10 0.07 0.05 0.03 0.02 0.01 0.00 0.00 0.00 0.00 0.00 0.00 0.00 0.00 0.00 0.00 0.00 0.00 0.00 0.00 0.00 0.00 0.00 0.00 0.00 0.00 0.00
0.11 0.09 0.09 0.09 0.13 0.13 0.10 0.10 0.12 0.13 0.11 0.09 0.06 0.06 0.04 0.02 0.01 0.00 0.00 0.00 0.00 0.00 0.00 0.00 0.00 0.00 0.00 0.00 0.00 0.00 0.00 0.00 0.00 0.00 0.00 0.00 0.00 0.00
0.12 0.12 0.13 0.14 0.15 0.14 0.15 0.15 0.15 0.16 0.16 0.12 0.06 0.07 0.06 0.04 0.02 0.01 0.00 0.00 0.00 0.00 0.00 0.00 0.00 0.00 0.00 0.00 0.00 0.00 0.00 0.00 0.00 0.00 0.00 0.00 0.00 0.01
0.14 0.14 0.14 0.16 0.16 0.16 0.16 0.16 0.13 0.10 0.09 0.08 0.05 0.06 0.07 0.05 0.03 0.01 0.00 0.00 0.00 0.00 0.00 0.00 0.00 0.00 0.00 0.00 0.00 0.00 0.00 0.00 0.00 0.00 0.00 0.00 0.00 0.00

GFSNE_prec_precacc24_210.txt.gz
Total_Precipitation_Accumulation
0.00 0.00 0.00 0.00 0.00 0.00 0.00 0.00 0.00 0.00 0.00 0.00 0.01 0.01 0.00 0.00 0.00 0.01 0.01 0.00 0.00 0.00 0.00 0.00 0.00 0.00 0.00 0.00 0.01 0.01 0.02 0.03 0.04 0.04 0.05 0.07 0.10 0.11
0.02 0.02 0.02 0.02 0.01 0.00 0.00 0.00 0.00 0.00 0.00 0.00 0.00 0.00 0.01 0.00 0.00 0.01 0.02 0.03 0.01 0.00 0.00 0.00 0.00 0.00 0.00 0.00 0.00 0.01 0.01 0.02 0.02 0.03 0.04 0.05 0.08 0.08
0.06 0.08 0.10 0.10 0.10 0.06 0.04 0.04 0.03 0.03 0.04 0.03 0.02 0.02 0.02 0.01 0.02 0.03 0.04 0.04 0.02 0.00 0.00 0.00 0.00 0.00 0.00 0.00 0.00 0.00 0.01 0.01 0.01 0.02 0.02 0.03 0.05 0.06
0.18 0.21 0.21 0.20 0.21 0.21 0.21 0.20 0.19 0.17 0.18 0.19 0.15 0.09 0.05 0.03 0.04 0.04 0.03 0.01 0.00 0.00 0.00 0.00 0.00 0.00 0.00 0.00 0.00 0.00 0.00 0.01 0.01 0.01 0.01 0.01 0.03 0.04
0.44 0.42 0.39 0.35 0.34 0.32 0.26 0.20 0.16 0.15 0.15 0.17 0.14 0.09 0.07 0.08 0.09 0.07 0.03 0.01 0.01 0.00 0.00 0.00 0.00 0.00 0.00 0.00 0.00 0.00 0.00 0.00 0.01 0.01 0.01 0.01 0.01 0.02
0.33 0.36 0.36 0.33 0.27 0.25 0.26 0.20 0.13 0.09 0.08 0.08 0.09 0.09 0.10 0.11 0.10 0.05 0.01 0.00 0.00 0.00 0.00 0.00 0.00 0.00 0.00 0.00 0.00 0.00 0.00 0.00 0.00 0.00 0.01 0.01 0.00 0.01
0.35 0.36 0.34 0.31 0.27 0.22 0.19 0.14 0.09 0.07 0.05 0.04 0.04 0.05 0.07 0.06 0.06 0.03 0.00 0.00 0.00 0.00 0.00 0.00 0.00 0.00 0.00 0.00 0.00 0.00 0.00 0.00 0.00 0.00 0.01 0.01 0.01 0.01
0.26 0.23 0.22 0.22 0.17 0.15 0.12 0.07 0.04 0.03 0.05 0.04 0.03 0.03 0.02 0.02 0.04 0.03 0.01 0.00 0.00 0.00 0.00 0.00 0.00 0.00 0.00 0.00 0.00 0.00 0.00 0.00 0.00 0.00 0.00 0.00 0.01 0.00
0.17 0.16 0.15 0.14 0.14 0.09 0.11 0.08 0.06 0.05 0.04 0.04 0.03 0.03 0.02 0.03 0.05 0.04 0.01 0.00 0.00 0.00 0.00 0.01 0.00 0.00 0.00 0.00 0.00 0.00 0.00 0.00 0.00 0.00 0.00 0.00 0.00 0.00
0.11 0.09 0.07 0.07 0.09 0.09 0.09 0.08 0.05 0.05 0.04 0.04 0.02 0.02 0.02 0.02 0.04 0.02 0.00 0.00 0.00 0.00 0.00 0.01 0.00 0.00 0.01 0.01 0.00 0.00 0.00 0.00 0.00 0.00 0.00 0.00 0.00 0.00
0.07 0.06 0.07 0.09 0.12 0.09 0.07 0.06 0.04 0.03 0.03 0.04 0.05 0.04 0.03 0.02 0.02 0.02 0.01 0.00 0.01 0.01 0.00 0.00 0.00 0.00 0.00 0.01 0.01 0.00 0.00 0.00 0.00 0.00 0.00 0.00 0.00 0.00
0.13 0.10 0.10 0.11 0.16 0.13 0.09 0.07 0.07 0.06 0.03 0.04 0.05 0.03 0.02 0.01 0.01 0.00 0.00 0.00 0.00 0.01 0.00 0.00 0.00 0.00 0.01 0.02 0.00 0.00 0.01 0.00 0.00 0.00 0.00 0.00 0.00 0.00
0.17 0.17 0.14 0.16 0.20 0.16 0.12 0.08 0.08 0.07 0.08 0.07 0.06 0.05 0.03 0.01 0.00 0.00 0.00 0.00 0.00 0.00 0.00 0.00 0.00 0.00 0.00 0.01 0.00 0.00 0.00 0.00 0.00 0.00 0.00 0.00 0.00 0.00
0.22 0.18 0.17 0.23 0.22 0.18 0.14 0.10 0.10 0.11 0.09 0.07 0.07 0.07 0.04 0.03 0.03 0.02 0.01 0.00 0.00 0.01 0.00 0.00 0.00 0.00 0.00 0.00 0.01 0.00 0.00 0.00 0.00 0.00 0.00 0.00 0.00 0.00
0.23 0.19 0.20 0.29 0.24 0.19 0.15 0.16 0.10 0.11 0.09 0.07 0.08 0.09 0.08 0.06 0.06 0.04 0.02 0.01 0.00 0.00 0.00 0.00 0.00 0.00 0.00 0.00 0.00 0.00 0.00 0.00 0.00 0.00 0.00 0.00 0.00 0.00
0.34 0.28 0.31 0.39 0.29 0.16 0.15 0.16 0.12 0.12 0.08 0.06 0.07 0.12 0.16 0.16 0.12 0.06 0.02 0.01 0.01 0.01 0.00 0.00 0.00 0.00 0.00 0.00 0.00 0.00 0.00 0.00 0.00 0.00 0.00 0.00 0.00 0.00
0.27 0.34 0.47 0.47 0.34 0.20 0.19 0.14 0.14 0.14 0.16 0.14 0.13 0.13 0.16 0.16 0.11 0.09 0.06 0.03 0.01 0.01 0.00 0.00 0.00 0.00 0.00 0.00 0.00 0.00 0.00 0.00 0.00 0.00 0.00 0.00 0.00 0.00
0.25 0.25 0.22 0.17 0.10 0.07 0.07 0.09 0.16 0.14 0.12 0.11 0.13 0.13 0.13 0.11 0.09 0.08 0.06 0.04 0.02 0.01 0.00 0.00 0.00 0.00 0.00 0.00 0.00 0.00 0.00 0.00 0.00 0.00 0.00 0.00 0.00 0.00
0.22 0.17 0.11 0.11 0.09 0.08 0.06 0.08 0.16 0.16 0.13 0.15 0.13 0.11 0.10 0.10 0.08 0.07 0.05 0.04 0.03 0.01 0.00 0.00 0.00 0.00 0.00 0.00 0.00 0.00 0.00 0.00 0.00 0.00 0.00 0.00 0.00 0.00
0.19 0.10 0.08 0.08 0.11 0.11 0.07 0.09 0.17 0.23 0.23 0.17 0.13 0.11 0.09 0.07 0.06 0.05 0.03 0.03 0.02 0.01 0.00 0.00 0.00 0.00 0.00 0.00 0.00 0.00 0.00 0.00 0.00 0.00 0.00 0.00 0.00 0.00
0.11 0.09 0.09 0.09 0.13 0.14 0.11 0.11 0.16 0.19 0.17 0.15 0.11 0.11 0.10 0.09 0.06 0.03 0.02 0.02 0.02 0.01 0.00 0.00 0.00 0.00 0.00 0.00 0.00 0.00 0.00 0.00 0.00 0.00 0.00 0.00 0.00 0.00
0.12 0.12 0.13 0.14 0.15 0.15 0.16 0.16 0.17 0.22 0.23 0.18 0.11 0.11 0.11 0.08 0.06 0.03 0.02 0.02 0.01 0.00 0.00 0.00 0.00 0.00 0.00 0.00 0.00 0.00 0.00 0.00 0.00 0.00 0.00 0.00 0.00 0.00
0.14 0.14 0.15 0.16 0.16 0.16 0.17 0.17 0.15 0.14 0.14 0.12 0.07 0.08 0.11 0.10 0.07 0.05 0.04 0.03 0.02 0.00 0.00 0.00 0.00 0.00 0.00 0.00 0.00 0.00 0.00 0.00 0.00 0.00 0.00 0.00 0.00 0.00

GFSNE_prec_precacc24_216.txt.gz
Total_Precipitation_Accumulation
0.00 0.00 0.00 0.00 0.00 0.00 0.00 0.00 0.00 0.00 0.00 0.00 0.01 0.01 0.00 0.00 0.00 0.01 0.01 0.02 0.02 0.02 0.02 0.02 0.01 0.02 0.01 0.01 0.00 0.00 0.00 0.00 0.00 0.01 0.01 0.03 0.05 0.05
0.04 0.02 0.02 0.02 0.02 0.01 0.01 0.01 0.01 0.00 0.00 0.00 0.00 0.00 0.01 0.00 0.00 0.01 0.02 0.04 0.04 0.04 0.03 0.02 0.01 0.00 0.00 0.00 0.00 0.00 0.00 0.00 0.00 0.00 0.01 0.02 0.04 0.03
0.25 0.21 0.18 0.16 0.15 0.10 0.07 0.06 0.05 0.04 0.05 0.06 0.05 0.05 0.05 0.04 0.05 0.05 0.06 0.07 0.05 0.03 0.01 0.00 0.00 0.00 0.00 0.00 0.00 0.00 0.00 0.00 0.00 0.00 0.00 0.01 0.02 0.03
0.61 0.68 0.75 0.75 0.72 0.73 0.66 0.50 0.36 0.24 0.25 0.30 0.27 0.20 0.14 0.11 0.11 0.10 0.06 0.04 0.01 0.01 0.01 0.00 0.00 0.00 0.00 0.00 0.00 0.00 0.00 0.00 0.00 0.00 0.00 0.00 0.01 0.02
1.09 1.07 0.98 0.86 0.82 0.76 0.72 0.59 0.42 0.31 0.26 0.27 0.23 0.18 0.18 0.18 0.16 0.12 0.06 0.02 0.01 0.01 0.01 0.00 0.00 0.00 0.00 0.00 0.00 0.00 0.00 0.00 0.00 0.00 0.00 0.00 0.00 0.01
0.65 0.70 0.72 0.67 0.58 0.51 0.51 0.44 0.31 0.22 0.18 0.17 0.18 0.17 0.20 0.19 0.16 0.11 0.05 0.02 0.00 0.00 0.00 0.00 0.00 0.00 0.00 0.00 0.00 0.00 0.00 0.00 0.00 0.00 0.00 0.00 0.00 0.00
0.61 0.63 0.71 0.74 0.72 0.64 0.63 0.49 0.32 0.28 0.23 0.16 0.16 0.16 0.18 0.18 0.15 0.08 0.02 0.02 0.02 0.00 0.00 0.00 0.00 0.00 0.00 0.00 0.00 0.00 0.00 0.00 0.00 0.00 0.00 0.00 0.00 0.00
0.75 0.61 0.48 0.57 0.53 0.51 0.47 0.40 0.35 0.31 0.25 0.16 0.14 0.14 0.11 0.08 0.10 0.12 0.09 0.09 0.07 0.01 0.00 0.00 0.00 0.00 0.00 0.00 0.00 0.00 0.00 0.00 0.00 0.00 0.00 0.00 0.00 0.00
0.61 0.60 0.47 0.38 0.37 0.32 0.45 0.40 0.34 0.27 0.20 0.18 0.17 0.14 0.11 0.13 0.18 0.18 0.11 0.04 0.01 0.01 0.00 0.01 0.00 0.00 0.00 0.00 0.00 0.00 0.00 0.00 0.00 0.00 0.00 0.00 0.00 0.00
0.70 0.63 0.49 0.42 0.41 0.39 0.37 0.30 0.25 0.24 0.22 0.17 0.11 0.11 0.11 0.12 0.15 0.11 0.07 0.07 0.08 0.03 0.02 0.04 0.01 0.01 0.01 0.01 0.00 0.00 0.00 0.00 0.00 0.00 0.00 0.00 0.00 0.00
0.55 0.53 0.48 0.48 0.52 0.48 0.41 0.34 0.28 0.22 0.24 0.22 0.17 0.18 0.14 0.09 0.08 0.13 0.21 0.17 0.11 0.07 0.03 0.01 0.01 0.02 0.02 0.02 0.01 0.00 0.00 0.00 0.00 0.00 0.00 0.00 0.00 0.00
0.60 0.55 0.56 0.51 0.59 0.51 0.38 0.31 0.30 0.24 0.22 0.20 0.17 0.14 0.10 0.08 0.08 0.03 0.02 0.02 0.03 0.06 0.03 0.01 0.01 0.01 0.02 0.03 0.02 0.01 0.01 0.00 0.00 0.00 0.00 0.00 0.00 0.00
0.62 0.63 0.61 0.57 0.55 0.47 0.40 0.33 0.29 0.24 0.24 0.17 0.13 0.09 0.07 0.05 0.04 0.05 0.03 0.02 0.02 0.01 0.00 0.00 0.01 0.01 0.00 0.01 0.01 0.01 0.02 0.01 0.00 0.00 0.00 0.00 0.00 0.00
0.64 0.51 0.46 0.53 0.46 0.35 0.26 0.18 0.16 0.15 0.14 0.12 0.12 0.12 0.09 0.07 0.05 0.05 0.03 0.04 0.03 0.03 0.01 0.00 0.01 0.00 0.00 0.00 0.02 0.01 0.02 0.02 0.01 0.01 0.00 0.00 0.00 0.00
0.33 0.25 0.24 0.32 0.28 0.23 0.17 0.17 0.11 0.12 0.11 0.10 0.11 0.11 0.09 0.07 0.07 0.07 0.05 0.07 0.06 0.03 0.01 0.00 0.01 0.00 0.00 0.00 0.00 0.01 0.02 0.03 0.01 0.00 0.00 0.00 0.00 0.00
0.38 0.31 0.35 0.42 0.31 0.17 0.15 0.17 0.13 0.13 0.09 0.07 0.08 0.13 0.18 0.19 0.16 0.09 0.06 0.04 0.05 0.06 0.02 0.01 0.01 0.01 0.02 0.00 0.00 0.00 0.00 0.01 0.01 0.00 0.00 0.00 0.00 0.00
0.28 0.34 0.47 0.47 0.34 0.20 0.19 0.14 0.14 0.15 0.17 0.15 0.14 0.14 0.18 0.20 0.16 0.12 0.10 0.07 0.06 0.03 0.02 0.02 0.00 0.00 0.00 0.00 0.00 0.00 0.00 0.00 0.00 0.00 0.00 0.00 0.00 0.00
0.25 0.25 0.22 0.17 0.10 0.07 0.07 0.10 0.17 0.15 0.14 0.12 0.14 0.16 0.17 0.16 0.15 0.16 0.14 0.12 0.08 0.03 0.02 0.02 0.01 0.01 0.00 0.00 0.00 0.00 0.00 0.00 0.00 0.00 0.00 0.00 0.00 0.00
0.22 0.17 0.11 0.11 0.09 0.09 0.07 0.08 0.17 0.18 0.15 0.19 0.17 0.16 0.16 0.18 0.17 0.16 0.13 0.14 0.15 0.10 0.05 0.03 0.02 0.01 0.00 0.00 0.00 0.00 0.00 0.00 0.00 0.00 0.00 0.00 0.00 0.00
0.19 0.10 0.08 0.08 0.11 0.12 0.08 0.09 0.18 0.25 0.26 0.21 0.17 0.16 0.16 0.14 0.14 0.13 0.11 0.11 0.10 0.10 0.09 0.06 0.04 0.01 0.00 0.00 0.01 0.00 0.00 0.00 0.00 0.00 0.00 0.00 0.00 0.00
0.11 0.10 0.09 0.10 0.13 0.14 0.11 0.11 0.16 0.19 0.18 0.17 0.14 0.16 0.16 0.15 0.15 0.11 0.10 0.12 0.14 0.11 0.08 0.04 0.01 0.02 0.06 0.06 0.03 0.02 0.02 0.01 0.00 0.00 0.00 0.00 0.00 0.00
0.12 0.12 0.13 0.14 0.16 0.15 0.16 0.16 0.18 0.22 0.24 0.21 0.14 0.15 0.16 0.15 0.14 0.12 0.12 0.13 0.11 0.08 0.06 0.07 0.09 0.08 0.04 0.01 0.02 0.01 0.01 0.01 0.00 0.00 0.00 0.00 0.00 0.00
0.14 0.14 0.15 0.16 0.17 0.16 0.17 0.18 0.15 0.14 0.15 0.13 0.09 0.11 0.16 0.17 0.14 0.14 0.14 0.14 0.15 0.15 0.15 0.11 0.06 0.05 0.04 0.04 0.04 0.01 0.01 0.00 0.00 0.00 0.00 0.00 0.00 0.00

GFSNE_prec_precacc24_219.txt.gz
Total_Precipitation_Accumulation
0.00 0.00 0.00 0.00 0.00 0.00 0.00 0.00 0.00 0.00 0.00 0.00 0.01 0.01 0.00 0.00 0.00 0.01 0.01 0.02 0.02 0.02 0.02 0.02 0.01 0.02 0.01 0.01 0.00 0.00 0.00 0.00 0.00 0.00 0.00 0.01 0.03 0.03
0.04 0.03 0.02 0.02 0.02 0.01 0.01 0.01 0.01 0.02 0.01 0.00 0.00 0.00 0.01 0.00 0.00 0.01 0.02 0.04 0.04 0.04 0.03 0.02 0.01 0.00 0.00 0.00 0.00 0.00 0.00 0.00 0.00 0.00 0.00 0.00 0.02 0.01
0.27 0.25 0.22 0.20 0.17 0.12 0.08 0.08 0.08 0.08 0.11 0.14 0.11 0.13 0.10 0.04 0.05 0.05 0.06 0.07 0.05 0.03 0.01 0.00 0.00 0.00 0.00 0.00 0.00 0.00 0.00 0.00 0.00 0.00 0.00 0.00 0.01 0.01
0.62 0.69 0.78 0.85 0.83 0.81 0.75 0.73 0.68 0.62 0.62 0.68 0.55 0.43 0.30 0.17 0.13 0.11 0.07 0.04 0.01 0.01 0.01 0.00 0.00 0.00 0.00 0.00 0.00 0.00 0.00 0.00 0.00 0.00 0.00 0.00 0.00 0.01
1.12 1.08 0.99 0.88 0.85 0.82 0.79 0.79 0.81 0.85 0.82 0.78 0.61 0.39 0.34 0.32 0.25 0.16 0.10 0.05 0.03 0.03 0.02 0.01 0.00 0.00 0.00 0.00 0.00 0.00 0.00 0.00 0.00 0.00 0.00 0.00 0.00 0.00
0.69 0.73 0.74 0.69 0.59 0.53 0.55 0.58 0.51 0.45 0.44 0.46 0.46 0.38 0.37 0.31 0.23 0.18 0.14 0.07 0.04 0.04 0.03 0.02 0.00 0.00 0.00 0.00 0.00 0.00 0.00 0.00 0.00 0.00 0.00 0.00 0.00 0.00
0.66 0.71 0.78 0.85 0.83 0.74 0.72 0.59 0.46 0.44 0.39 0.35 0.35 0.36 0.37 0.30 0.25 0.16 0.07 0.06 0.08 0.04 0.00 0.00 0.00 0.00 0.00 0.00 0.00 0.00 0.00 0.00 0.00 0.00 0.00 0.00 0.00 0.00
0.81 0.70 0.69 0.92 0.93 0.98 0.95 0.86 0.80 0.73 0.60 0.41 0.31 0.25 0.19 0.13 0.18 0.28 0.26 0.23 0.24 0.07 0.00 0.01 0.00 0.00 0.00 0.00 0.00 0.00 0.00 0.00 0.00 0.00 0.00 0.00 0.00 0.00
0.76 0.78 0.68 0.59 0.65 0.61 0.86 0.90 0.88 0.81 0.68 0.60 0.57 0.42 0.27 0.21 0.28 0.31 0.25 0.13 0.09 0.04 0.01 0.05 0.00 0.00 0.00 0.00 0.00 0.00 0.00 0.00 0.00 0.00 0.00 0.00 0.00 0.00
0.75 0.73 0.68 0.67 0.69 0.62 0.62 0.59 0.54 0.58 0.60 0.54 0.38 0.32 0.31 0.34 0.37 0.31 0.23 0.20 0.26 0.11 0.06 0.10 0.02 0.02 0.01 0.01 0.00 0.00 0.00 0.00 0.00 0.00 0.00 0.00 0.00 0.00
0.57 0.57 0.56 0.59 0.71 0.75 0.73 0.70 0.62 0.54 0.56 0.55 0.47 0.51 0.46 0.33 0.28 0.32 0.40 0.38 0.28 0.14 0.08 0.05 0.03 0.05 0.04 0.03 0.01 0.00 0.00 0.00 0.00 0.00 0.00 0.00 0.00 0.00
0.58 0.55 0.61 0.55 0.67 0.61 0.50 0.46 0.50 0.50 0.51 0.52 0.50 0.49 0.43 0.35 0.24 0.14 0.11 0.08 0.09 0.14 0.09 0.07 0.03 0.04 0.06 0.05 0.02 0.01 0.02 0.00 0.00 0.00 0.00 0.00 0.00 0.00
0.60 0.64 0.63 0.63 0.62 0.56 0.52 0.51 0.56 0.61 0.66 0.58 0.50 0.40 0.31 0.26 0.17 0.12 0.07 0.06 0.06 0.02 0.01 0.04 0.03 0.02 0.01 0.02 0.02 0.02 0.02 0.01 0.01 0.00 0.00 0.00 0.00 0.00
0.65 0.56 0.54 0.67 0.62 0.56 0.53 0.51 0.51 0.50 0.45 0.39 0.34 0.29 0.22 0.17 0.14 0.10 0.05 0.05 0.03 0.04 0.01 0.02 0.02 0.00 0.01 0.01 0.02 0.02 0.03 0.03 0.01 0.01 0.01 0.00 0.00 0.00
0.41 0.36 0.35 0.43 0.39 0.35 0.30 0.30 0.23 0.22 0.20 0.19 0.18 0.17 0.14 0.11 0.11 0.09 0.06 0.10 0.09 0.04 0.02 0.03 0.02 0.01 0.01 0.01 0.00 0.01 0.03 0.04 0.02 0.01 0.01 0.00 0.00 0.00
0.43 0.37 0.40 0.48 0.39 0.26 0.24 0.25 0.21 0.19 0.14 0.12 0.12 0.16 0.21 0.21 0.18 0.10 0.07 0.06 0.08 0.10 0.05 0.03 0.04 0.03 0.05 0.03 0.01 0.01 0.01 0.02 0.01 0.01 0.01 0.00 0.00 0.00
0.31 0.38 0.50 0.51 0.37 0.23 0.22 0.17 0.16 0.16 0.18 0.16 0.15 0.15 0.20 0.21 0.17 0.13 0.11 0.09 0.08 0.04 0.05 0.05 0.04 0.02 0.02 0.03 0.03 0.01 0.01 0.00 0.01 0.01 0.01 0.01 0.00 0.00
0.26 0.27 0.24 0.18 0.11 0.07 0.07 0.10 0.17 0.16 0.14 0.12 0.14 0.16 0.18 0.17 0.16 0.16 0.15 0.14 0.10 0.05 0.03 0.04 0.05 0.08 0.08 0.04 0.01 0.00 0.00 0.00 0.00 0.01 0.01 0.01 0.00 0.00
0.22 0.18 0.12 0.11 0.09 0.09 0.07 0.08 0.17 0.18 0.15 0.19 0.17 0.16 0.16 0.19 0.20 0.18 0.16 0.16 0.18 0.13 0.06 0.04 0.05 0.04 0.03 0.01 0.00 0.00 0.00 0.00 0.00 0.01 0.00 0.00 0.00 0.00
0.19 0.10 0.08 0.08 0.11 0.12 0.08 0.09 0.18 0.25 0.26 0.21 0.18 0.17 0.16 0.15 0.16 0.15 0.12 0.12 0.12 0.13 0.11 0.08 0.05 0.04 0.01 0.01 0.04 0.01 0.00 0.00 0.00 0.00 0.00 0.00 0.00 0.00
0.11 0.09 0.09 0.09 0.13 0.14 0.11 0.12 0.16 0.19 0.18 0.17 0.14 0.16 0.16 0.16 0.16 0.11 0.11 0.13 0.17 0.15 0.10 0.04 0.01 0.03 0.13 0.19 0.14 0.03 0.04 0.02 0.00 0.01 0.01 0.02 0.01 0.00
0.12 0.12 0.13 0.14 0.15 0.15 0.16 0.16 0.18 0.22 0.25 0.21 0.14 0.15 0.17 0.15 0.15 0.12 0.13 0.14 0.13 0.10 0.07 0.09 0.13 0.16 0.14 0.06 0.06 0.03 0.04 0.07 0.04 0.03 0.01 0.01 0.01 0.00
0.13 0.14 0.15 0.16 0.16 0.16 0.17 0.17 0.15 0.14 0.15 0.14 0.09 0.11 0.16 0.17 0.15 0.15 0.15 0.15 0.16 0.18 0.18 0.16 0.09 0.09 0.09 0.09 0.12 0.04 0.03 0.05 0.05 0.03 0.02 0.00 0.00 0.00

GFSNE_prec_precacc24_225.txt.gz
Total_Precipitation_Accumulation
0.01 0.01 0.00 0.01 0.02 0.01 0.00 0.00 0.01 0.00 0.00 0.00 0.01 0.01 0.00 0.00 0.00 0.01 0.01 0.02 0.02 0.02 0.02 0.02 0.01 0.02 0.01 0.01 0.00 0.00 0.00 0.00 0.00 0.00 0.00 0.00 0.00 0.00
0.05 0.03 0.03 0.03 0.02 0.02 0.01 0.02 0.01 0.02 0.01 0.01 0.01 0.01 0.01 0.00 0.00 0.01 0.02 0.05 0.08 0.09 0.07 0.05 0.06 0.03 0.01 0.00 0.00 0.00 0.00 0.00 0.00 0.00 0.00 0.00 0.00 0.00
0.28 0.26 0.23 0.21 0.19 0.13 0.09 0.09 0.09 0.09 0.12 0.15 0.12 0.15 0.16 0.15 0.18 0.18 0.20 0.22 0.21 0.19 0.24 0.24 0.17 0.08 0.03 0.01 0.00 0.00 0.00 0.00 0.00 0.00 0.00 0.00 0.00 0.00
0.61 0.68 0.79 0.86 0.84 0.83 0.77 0.75 0.70 0.65 0.66 0.77 0.72 0.62 0.51 0.45 0.45 0.41 0.37 0.33 0.37 0.41 0.35 0.24 0.15 0.09 0.05 0.02 0.01 0.01 0.00 0.00 0.00 0.00 0.00 0.00 0.00 0.00
1.09 1.05 0.97 0.86 0.83 0.80 0.79 0.80 0.84 0.86 0.85 0.87 0.79 0.62 0.62 0.66 0.60 0.53 0.51 0.45 0.46 0.43 0.35 0.24 0.16 0.11 0.07 0.04 0.04 0.04 0.03 0.01 0.00 0.00 0.00 0.00 0.00 0.00
0.63 0.66 0.67 0.61 0.54 0.49 0.56 0.62 0.56 0.51 0.49 0.55 0.62 0.62 0.73 0.77 0.70 0.72 0.69 0.51 0.30 0.24 0.26 0.24 0.20 0.16 0.13 0.09 0.06 0.05 0.05 0.03 0.01 0.00 0.00 0.00 0.00 0.00
0.51 0.56 0.64 0.77 0.83 0.81 0.83 0.67 0.59 0.64 0.73 0.83 0.82 0.85 1.00 1.03 0.86 0.61 0.44 0.35 0.30 0.22 0.21 0.28 0.27 0.22 0.18 0.13 0.09 0.06 0.06 0.06 0.04 0.01 0.01 0.00 0.00 0.00
0.78 0.65 0.60 0.93 0.97 1.11 1.16 1.04 1.02 1.03 1.11 1.09 0.98 0.84 0.69 0.55 0.49 0.58 0.54 0.57 0.58 0.33 0.21 0.30 0.29 0.31 0.25 0.18 0.13 0.09 0.07 0.06 0.03 0.01 0.01 0.00 0.00 0.00
0.70 0.78 0.72 0.69 0.88 0.76 1.17 1.25 1.06 0.96 0.82 0.76 0.71 0.55 0.45 0.45 0.53 0.60 0.57 0.38 0.31 0.30 0.31 0.59 0.48 0.40 0.28 0.21 0.18 0.14 0.10 0.08 0.04 0.02 0.01 0.01 0.00 0.00
1.03 1.05 0.92 0.89 1.01 1.00 0.95 1.01 0.87 0.75 0.72 0.71 0.49 0.43 0.47 0.56 0.65 0.63 0.63 0.61 0.79 0.58 0.46 0.60 0.43 0.35 0.25 0.21 0.21 0.19 0.15 0.11 0.07 0.03 0.02 0.01 0.00 0.00
0.74 0.76 0.85 0.78 0.97 1.13 1.01 0.86 0.82 0.71 0.79 0.83 0.63 0.68 0.72 0.67 0.65 0.71 0.81 0.78 0.69 0.48 0.37 0.32 0.30 0.38 0.33 0.27 0.24 0.21 0.16 0.12 0.09 0.04 0.02 0.01 0.01 0.00
0.59 0.62 0.81 0.59 0.76 0.73 0.60 0.50 0.53 0.54 0.58 0.68 0.68 0.69 0.68 0.65 0.56 0.36 0.34 0.33 0.39 0.48 0.43 0.36 0.36 0.41 0.51 0.34 0.22 0.23 0.18 0.12 0.07 0.03 0.02 0.01 0.01 0.00
0.49 0.53 0.59 0.66 0.62 0.63 0.63 0.54 0.58 0.67 0.83 0.77 0.71 0.65 0.56 0.48 0.38 0.31 0.26 0.35 0.37 0.24 0.20 0.32 0.39 0.37 0.30 0.18 0.22 0.23 0.18 0.12 0.09 0.05 0.03 0.01 0.01 0.01
0.51 0.44 0.46 0.64 0.57 0.56 0.57 0.54 0.58 0.63 0.60 0.59 0.58 0.56 0.52 0.45 0.41 0.34 0.32 0.35 0.29 0.29 0.26 0.31 0.25 0.16 0.16 0.15 0.17 0.18 0.15 0.11 0.08 0.06 0.03 0.01 0.00 0.01
0.27 0.29 0.31 0.37 0.37 0.36 0.33 0.34 0.28 0.27 0.27 0.29 0.32 0.34 0.33 0.34 0.39 0.40 0.38 0.35 0.30 0.23 0.24 0.20 0.12 0.14 0.15 0.07 0.07 0.10 0.14 0.13 0.06 0.03 0.02 0.01 0.00 0.01
0.27 0.26 0.30 0.37 0.35 0.29 0.27 0.27 0.24 0.25 0.24 0.22 0.24 0.30 0.38 0.40 0.36 0.25 0.20 0.20 0.25 0.28 0.21 0.16 0.12 0.12 0.13 0.07 0.05 0.08 0.07 0.07 0.04 0.01 0.01 0.01 0.00 0.00
0.20 0.25 0.33 0.35 0.30 0.22 0.21 0.18 0.20 0.24 0.28 0.25 0.25 0.26 0.32 0.34 0.29 0.23 0.19 0.17 0.17 0.13 0.16 0.17 0.11 0.07 0.06 0.05 0.07 0.03 0.03 0.01 0.01 0.01 0.02 0.02 0.01 0.00
0.14 0.14 0.13 0.13 0.11 0.09 0.08 0.11 0.18 0.18 0.16 0.15 0.18 0.20 0.22 0.21 0.20 0.23 0.21 0.20 0.15 0.09 0.07 0.08 0.13 0.20 0.22 0.14 0.02 0.01 0.00 0.01 0.01 0.01 0.01 0.02 0.02 0.01
0.14 0.11 0.08 0.10 0.09 0.10 0.07 0.09 0.17 0.18 0.16 0.20 0.19 0.18 0.19 0.22 0.25 0.22 0.20 0.22 0.24 0.18 0.10 0.08 0.11 0.08 0.06 0.03 0.01 0.00 0.00 0.01 0.02 0.03 0.03 0.01 0.01 0.00
0.14 0.10 0.07 0.06 0.10 0.11 0.07 0.10 0.18 0.25 0.28 0.23 0.21 0.20 0.20 0.18 0.19 0.19 0.16 0.15 0.14 0.16 0.16 0.11 0.08 0.05 0.02 0.01 0.06 0.02 0.02 0.02 0.02 0.01 0.02 0.03 0.03 0.01
0.09 0.08 0.05 0.05 0.10 0.11 0.07 0.09 0.15 0.18 0.19 0.17 0.15 0.17 0.18 0.17 0.17 0.13 0.12 0.16 0.19 0.17 0.14 0.05 0.01 0.03 0.16 0.27 0.22 0.06 0.08 0.06 0.01 0.01 0.02 0.07 0.07 0.03
0.04 0.04 0.06 0.07 0.09 0.10 0.10 0.12 0.16 0.21 0.24 0.21 0.14 0.16 0.17 0.16 0.16 0.13 0.14 0.16 0.15 0.12 0.09 0.10 0.13 0.16 0.19 0.09 0.07 0.04 0.04 0.13 0.12 0.04 0.01 0.04 0.06 0.02
0.03 0.05 0.06 0.09 0.10 0.11 0.13 0.15 0.14 0.14 0.14 0.13 0.09 0.11 0.16 0.17 0.15 0.15 0.16 0.16 0.17 0.21 0.22 0.23 0.12 0.10 0.10 0.10 0.17 0.09 0.03 0.09 0.15 0.12 0.12 0.08 0.01 0.00

GFSNE_prec_precacc24_228.txt.gz
Total_Precipitation_Accumulation
0.01 0.01 0.00 0.01 0.02 0.01 0.00 0.00 0.01 0.00 0.00 0.00 0.00 0.00 0.00 0.00 0.00 0.01 0.02 0.02 0.02 0.02 0.02 0.02 0.02 0.02 0.02 0.03 0.03 0.02 0.02 0.01 0.01 0.01 0.00 0.00 0.00 0.00
0.05 0.04 0.03 0.03 0.02 0.02 0.01 0.02 0.01 0.02 0.01 0.01 0.01 0.01 0.01 0.00 0.00 0.01 0.04 0.06 0.08 0.10 0.08 0.06 0.10 0.15 0.15 0.09 0.05 0.03 0.02 0.02 0.01 0.01 0.01 0.00 0.00 0.00
0.27 0.25 0.23 0.21 0.19 0.13 0.09 0.09 0.09 0.09 0.12 0.14 0.11 0.15 0.16 0.15 0.18 0.18 0.20 0.22 0.22 0.23 0.33 0.45 0.41 0.26 0.12 0.05 0.04 0.03 0.03 0.02 0.01 0.01 0.01 0.00 0.00 0.00
0.52 0.55 0.67 0.78 0.79 0.80 0.76 0.75 0.70 0.64 0.64 0.73 0.70 0.62 0.51 0.46 0.45 0.41 0.38 0.35 0.41 0.49 0.49 0.37 0.26 0.15 0.08 0.05 0.03 0.02 0.02 0.01 0.01 0.01 0.01 0.01 0.01 0.00
0.88 0.86 0.80 0.75 0.75 0.78 0.79 0.78 0.82 0.85 0.83 0.83 0.78 0.62 0.62 0.66 0.61 0.54 0.52 0.45 0.48 0.54 0.52 0.38 0.24 0.13 0.09 0.07 0.05 0.05 0.05 0.04 0.02 0.03 0.04 0.03 0.01 0.01
0.54 0.57 0.59 0.54 0.50 0.47 0.49 0.55 0.52 0.50 0.49 0.54 0.62 0.63 0.74 0.77 0.70 0.73 0.70 0.58 0.46 0.43 0.42 0.35 0.27 0.21 0.18 0.15 0.11 0.08 0.07 0.07 0.05 0.05 0.05 0.05 0.04 0.03
0.48 0.48 0.56 0.72 0.82 0.79 0.78 0.64 0.58 0.66 0.75 0.85 0.85 0.88 1.02 1.05 0.89 0.66 0.54 0.50 0.43 0.27 0.24 0.33 0.35 0.34 0.30 0.24 0.17 0.12 0.10 0.09 0.07 0.06 0.07 0.07 0.06 0.04
1.59 1.33 1.18 1.33 1.09 1.14 1.17 1.05 1.06 1.09 1.18 1.15 1.05 0.92 0.77 0.64 0.60 0.74 0.67 0.68 0.64 0.37 0.26 0.40 0.40 0.43 0.35 0.27 0.25 0.21 0.18 0.13 0.08 0.05 0.05 0.04 0.04 0.04
0.89 0.97 0.94 1.07 1.32 1.05 1.34 1.39 1.19 1.10 1.06 1.15 1.08 0.85 0.78 0.72 0.80 0.88 0.72 0.43 0.32 0.32 0.37 0.68 0.56 0.49 0.38 0.32 0.34 0.28 0.23 0.18 0.12 0.06 0.05 0.05 0.05 0.06
1.15 1.22 1.13 1.06 1.26 1.33 1.27 1.40 1.30 1.22 1.16 1.17 0.85 0.68 0.66 0.67 0.75 0.70 0.70 0.67 0.85 0.63 0.50 0.65 0.48 0.44 0.35 0.30 0.36 0.34 0.30 0.24 0.18 0.11 0.07 0.07 0.07 0.08
0.79 0.88 0.95 0.84 1.01 1.20 1.23 1.33 1.37 1.28 1.22 1.19 0.90 0.81 0.80 0.76 0.77 0.87 0.95 0.84 0.75 0.56 0.43 0.36 0.35 0.46 0.43 0.38 0.38 0.40 0.34 0.28 0.24 0.16 0.10 0.09 0.08 0.08
0.57 0.62 0.81 0.55 0.70 0.71 0.64 0.56 0.60 0.61 0.67 0.80 0.80 0.78 0.72 0.68 0.62 0.43 0.40 0.39 0.46 0.55 0.47 0.39 0.40 0.47 0.66 0.51 0.37 0.40 0.37 0.31 0.26 0.20 0.13 0.11 0.10 0.10
0.47 0.51 0.56 0.65 0.56 0.58 0.61 0.54 0.59 0.66 0.81 0.78 0.73 0.69 0.61 0.51 0.40 0.34 0.28 0.38 0.41 0.27 0.23 0.37 0.46 0.44 0.41 0.26 0.31 0.37 0.33 0.27 0.26 0.23 0.17 0.12 0.11 0.09
0.48 0.42 0.47 0.64 0.53 0.54 0.56 0.56 0.59 0.62 0.57 0.56 0.58 0.57 0.52 0.47 0.43 0.37 0.35 0.42 0.32 0.31 0.30 0.37 0.30 0.20 0.22 0.21 0.23 0.28 0.30 0.24 0.20 0.18 0.16 0.12 0.11 0.09
0.23 0.26 0.28 0.30 0.31 0.31 0.32 0.31 0.27 0.24 0.24 0.27 0.30 0.32 0.31 0.33 0.41 0.45 0.45 0.41 0.33 0.26 0.29 0.23 0.15 0.18 0.19 0.10 0.10 0.16 0.29 0.28 0.18 0.14 0.15 0.12 0.08 0.08
0.17 0.18 0.19 0.25 0.28 0.26 0.26 0.24 0.21 0.23 0.21 0.19 0.20 0.27 0.36 0.41 0.40 0.30 0.26 0.25 0.30 0.36 0.30 0.25 0.19 0.19 0.20 0.14 0.12 0.18 0.18 0.16 0.14 0.09 0.07 0.07 0.04 0.03
0.11 0.13 0.17 0.20 0.19 0.16 0.17 0.14 0.17 0.23 0.26 0.23 0.22 0.24 0.31 0.36 0.33 0.29 0.25 0.24 0.23 0.19 0.24 0.24 0.19 0.14 0.09 0.08 0.13 0.07 0.07 0.04 0.03 0.05 0.07 0.05 0.02 0.00
0.08 0.08 0.08 0.08 0.07 0.06 0.06 0.08 0.13 0.16 0.15 0.13 0.16 0.18 0.21 0.21 0.23 0.27 0.25 0.24 0.19 0.15 0.12 0.13 0.19 0.27 0.27 0.17 0.03 0.02 0.02 0.03 0.03 0.04 0.04 0.04 0.03 0.01
0.07 0.05 0.05 0.06 0.07 0.06 0.05 0.06 0.11 0.13 0.14 0.17 0.17 0.16 0.17 0.22 0.27 0.24 0.23 0.25 0.28 0.21 0.12 0.11 0.13 0.10 0.07 0.04 0.01 0.01 0.01 0.02 0.04 0.06 0.05 0.02 0.01 0.01
0.08 0.07 0.04 0.04 0.07 0.08 0.05 0.07 0.14 0.18 0.19 0.19 0.18 0.18 0.18 0.18 0.20 0.20 0.17 0.16 0.15 0.18 0.17 0.14 0.11 0.06 0.02 0.01 0.06 0.02 0.02 0.02 0.03 0.02 0.03 0.05 0.05 0.02
0.06 0.07 0.05 0.03 0.06 0.08 0.04 0.06 0.11 0.13 0.13 0.13 0.12 0.15 0.17 0.18 0.17 0.13 0.13 0.17 0.20 0.18 0.14 0.06 0.01 0.04 0.17 0.28 0.24 0.07 0.08 0.06 0.01 0.01 0.03 0.10 0.10 0.06
0.03 0.03 0.03 0.02 0.04 0.06 0.06 0.07 0.10 0.15 0.17 0.16 0.11 0.13 0.16 0.15 0.15 0.13 0.14 0.16 0.16 0.12 0.09 0.11 0.16 0.20 0.22 0.11 0.08 0.04 0.04 0.14 0.14 0.05 0.02 0.05 0.07 0.03
0.01 0.00 0.01 0.02 0.04 0.05 0.07 0.08 0.08 0.09 0.11 0.11 0.07 0.09 0.15 0.17 0.15 0.15 0.16 0.17 0.18 0.22 0.24 0.25 0.16 0.14 0.12 0.12 0.20 0.11 0.04 0.11 0.18 0.16 0.16 0.11 0.01 0.00

GFSNE_prec_precacc24_231.txt.gz
Total_Precipitation_Accumulation
0.02 0.01 0.00 0.01 0.02 0.01 0.00 0.00 0.01 0.00 0.00 0.00 0.00 0.00 0.00 0.00 0.00 0.01 0.02 0.02 0.02 0.02 0.02 0.02 0.02 0.02 0.02 0.04 0.04 0.04 0.02 0.02 0.01 0.01 0.01 0.01 0.01 0.01
0.04 0.02 0.02 0.01 0.01 0.02 0.01 0.02 0.01 0.02 0.01 0.01 0.01 0.00 0.01 0.00 0.00 0.01 0.04 0.06 0.09 0.11 0.09 0.07 0.11 0.17 0.19 0.14 0.08 0.03 0.02 0.02 0.02 0.02 0.01 0.00 0.01 0.01
0.24 0.20 0.16 0.13 0.13 0.12 0.09 0.09 0.09 0.08 0.11 0.13 0.10 0.14 0.15 0.14 0.18 0.18 0.20 0.22 0.23 0.24 0.34 0.46 0.44 0.30 0.15 0.08 0.05 0.03 0.03 0.02 0.01 0.01 0.01 0.01 0.01 0.02
0.54 0.56 0.63 0.71 0.71 0.72 0.65 0.63 0.58 0.53 0.55 0.67 0.66 0.60 0.50 0.45 0.45 0.41 0.38 0.35 0.41 0.49 0.49 0.37 0.27 0.19 0.13 0.07 0.04 0.03 0.02 0.01 0.01 0.01 0.01 0.01 0.01 0.02
0.89 0.80 0.71 0.64 0.63 0.63 0.63 0.66 0.73 0.79 0.78 0.79 0.73 0.57 0.58 0.65 0.61 0.54 0.52 0.45 0.49 0.55 0.54 0.41 0.29 0.21 0.16 0.11 0.09 0.07 0.06 0.04 0.02 0.03 0.04 0.04 0.02 0.02
0.65 0.57 0.53 0.47 0.42 0.39 0.43 0.48 0.48 0.48 0.47 0.51 0.55 0.57 0.69 0.76 0.70 0.73 0.71 0.58 0.46 0.44 0.46 0.46 0.38 0.30 0.25 0.19 0.15 0.11 0.09 0.08 0.06 0.05 0.05 0.05 0.04 0.04
0.71 0.58 0.58 0.69 0.80 0.78 0.79 0.65 0.59 0.67 0.77 0.87 0.84 0.87 1.02 1.06 0.90 0.66 0.55 0.52 0.47 0.32 0.32 0.47 0.53 0.52 0.43 0.32 0.23 0.16 0.13 0.11 0.09 0.07 0.07 0.08 0.06 0.05
1.73 1.46 1.38 1.56 1.42 1.43 1.37 1.20 1.17 1.17 1.27 1.23 1.10 0.95 0.78 0.67 0.64 0.80 0.83 0.98 1.01 0.68 0.55 0.67 0.65 0.63 0.44 0.32 0.31 0.29 0.25 0.19 0.11 0.06 0.05 0.04 0.04 0.04
1.06 1.11 1.05 1.17 1.43 1.28 1.65 1.64 1.38 1.25 1.16 1.28 1.23 1.07 0.99 0.97 1.15 1.36 1.20 0.81 0.59 0.48 0.53 0.85 0.67 0.60 0.44 0.37 0.47 0.38 0.32 0.30 0.19 0.09 0.06 0.05 0.06 0.07
1.17 1.27 1.21 1.13 1.32 1.43 1.52 1.69 1.51 1.41 1.35 1.43 1.08 0.84 0.83 0.99 1.19 1.11 1.04 0.94 1.04 0.74 0.59 0.71 0.50 0.47 0.38 0.34 0.51 0.45 0.40 0.37 0.28 0.17 0.13 0.11 0.09 0.10
0.79 0.88 0.96 0.89 1.09 1.26 1.30 1.45 1.60 1.56 1.54 1.55 1.33 1.24 1.11 0.95 0.98 1.14 1.21 1.01 0.92 0.70 0.51 0.41 0.41 0.51 0.49 0.45 0.47 0.53 0.44 0.41 0.34 0.23 0.18 0.16 0.13 0.14
0.57 0.61 0.81 0.56 0.71 0.70 0.63 0.54 0.57 0.59 0.71 0.89 0.95 0.93 0.83 0.78 0.73 0.51 0.49 0.47 0.54 0.62 0.53 0.45 0.47 0.53 0.71 0.56 0.42 0.48 0.47 0.42 0.36 0.29 0.22 0.20 0.17 0.18
0.47 0.50 0.55 0.64 0.57 0.58 0.60 0.52 0.58 0.67 0.87 0.85 0.82 0.79 0.67 0.57 0.47 0.45 0.41 0.56 0.52 0.31 0.26 0.42 0.48 0.46 0.43 0.29 0.35 0.42 0.38 0.35 0.38 0.34 0.27 0.20 0.17 0.16
0.47 0.41 0.45 0.63 0.52 0.52 0.55 0.58 0.61 0.62 0.56 0.56 0.57 0.56 0.51 0.46 0.43 0.38 0.38 0.46 0.38 0.36 0.34 0.41 0.31 0.21 0.24 0.24 0.27 0.34 0.36 0.31 0.28 0.26 0.23 0.20 0.19 0.17
0.23 0.26 0.27 0.26 0.25 0.25 0.28 0.28 0.27 0.21 0.23 0.28 0.30 0.31 0.30 0.31 0.40 0.48 0.51 0.47 0.38 0.31 0.33 0.26 0.16 0.19 0.20 0.11 0.10 0.18 0.34 0.37 0.27 0.23 0.24 0.20 0.16 0.16
0.14 0.15 0.15 0.16 0.19 0.22 0.22 0.20 0.17 0.18 0.20 0.20 0.20 0.24 0.33 0.38 0.39 0.32 0.31 0.30 0.36 0.43 0.36 0.28 0.21 0.21 0.22 0.14 0.12 0.21 0.23 0.21 0.19 0.16 0.14 0.15 0.12 0.10
0.09 0.07 0.08 0.09 0.10 0.11 0.11 0.10 0.12 0.16 0.20 0.18 0.17 0.19 0.28 0.33 0.33 0.30 0.28 0.28 0.28 0.24 0.30 0.31 0.24 0.18 0.11 0.10 0.16 0.10 0.10 0.07 0.07 0.11 0.15 0.14 0.08 0.04
0.06 0.05 0.05 0.04 0.05 0.05 0.05 0.05 0.07 0.10 0.09 0.08 0.10 0.13 0.16 0.19 0.22 0.28 0.28 0.28 0.24 0.21 0.18 0.19 0.24 0.31 0.32 0.21 0.05 0.04 0.05 0.05 0.06 0.08 0.08 0.09 0.07 0.05
0.04 0.04 0.04 0.04 0.04 0.05 0.04 0.04 0.07 0.09 0.11 0.14 0.14 0.14 0.15 0.20 0.29 0.25 0.25 0.27 0.31 0.25 0.16 0.14 0.15 0.11 0.09 0.05 0.03 0.01 0.02 0.03 0.07 0.10 0.07 0.03 0.02 0.02
0.06 0.06 0.04 0.03 0.04 0.04 0.04 0.04 0.08 0.11 0.13 0.14 0.15 0.16 0.17 0.17 0.19 0.20 0.17 0.16 0.16 0.19 0.18 0.15 0.11 0.06 0.02 0.01 0.07 0.02 0.02 0.03 0.05 0.04 0.05 0.09 0.09 0.05
0.06 0.06 0.05 0.02 0.01 0.02 0.01 0.02 0.05 0.07 0.08 0.09 0.09 0.12 0.15 0.16 0.16 0.13 0.13 0.16 0.20 0.18 0.14 0.06 0.01 0.04 0.18 0.28 0.24 0.07 0.09 0.06 0.01 0.02 0.06 0.14 0.13 0.08
0.08 0.06 0.03 0.02 0.02 0.02 0.01 0.01 0.03 0.07 0.09 0.09 0.08 0.09 0.11 0.12 0.13 0.12 0.14 0.16 0.16 0.12 0.09 0.12 0.17 0.22 0.23 0.11 0.08 0.04 0.05 0.16 0.16 0.07 0.03 0.06 0.08 0.04
0.05 0.04 0.04 0.02 0.01 0.01 0.01 0.02 0.02 0.04 0.06 0.06 0.04 0.06 0.10 0.13 0.12 0.14 0.16 0.17 0.19 0.23 0.25 0.27 0.19 0.16 0.13 0.13 0.20 0.11 0.05 0.13 0.21 0.19 0.20 0.14 0.02 0.00

GFSNE_prec_precacc24_237.txt.gz
Total_Precipitation_Accumulation
0.14 0.12 0.08 0.05 0.04 0.04 0.03 0.02 0.03 0.00 0.00 0.00 0.00 0.00 0.00 0.00 0.00 0.00 0.00 0.00 0.00 0.00 0.00 0.00 0.00 0.00 0.02 0.04 0.04 0.04 0.03 0.02 0.02 0.02 0.02 0.01 0.02 0.02
0.15 0.06 0.04 0.03 0.04 0.03 0.03 0.03 0.03 0.02 0.01 0.01 0.01 0.00 0.01 0.00 0.00 0.00 0.01 0.02 0.05 0.07 0.06 0.05 0.10 0.17 0.19 0.14 0.08 0.03 0.02 0.02 0.02 0.02 0.02 0.01 0.02 0.02
0.32 0.26 0.17 0.19 0.10 0.07 0.07 0.06 0.06 0.06 0.07 0.09 0.07 0.11 0.12 0.11 0.14 0.14 0.15 0.16 0.18 0.22 0.33 0.46 0.44 0.30 0.15 0.08 0.05 0.04 0.03 0.02 0.01 0.01 0.01 0.01 0.01 0.02
0.43 0.47 0.62 0.77 0.71 0.65 0.58 0.56 0.51 0.46 0.44 0.48 0.46 0.43 0.40 0.40 0.38 0.35 0.35 0.33 0.41 0.49 0.49 0.37 0.27 0.19 0.13 0.08 0.06 0.07 0.07 0.07 0.06 0.04 0.04 0.03 0.02 0.03
0.57 0.73 0.83 0.77 0.75 0.68 0.60 0.61 0.66 0.71 0.69 0.67 0.61 0.48 0.50 0.55 0.51 0.49 0.50 0.44 0.48 0.55 0.54 0.42 0.31 0.24 0.21 0.22 0.23 0.22 0.18 0.14 0.10 0.09 0.09 0.07 0.05 0.03
1.34 1.19 1.04 1.02 0.98 0.90 0.80 0.70 0.71 0.67 0.55 0.53 0.58 0.56 0.62 0.64 0.59 0.67 0.67 0.56 0.46 0.45 0.48 0.48 0.41 0.36 0.35 0.31 0.28 0.26 0.27 0.26 0.24 0.22 0.18 0.13 0.09 0.05
0.78 0.73 0.73 0.83 1.08 1.25 1.33 1.14 1.04 1.20 1.30 1.19 1.01 0.94 0.98 0.96 0.81 0.64 0.56 0.53 0.48 0.33 0.33 0.48 0.56 0.62 0.64 0.65 0.55 0.48 0.43 0.38 0.32 0.23 0.19 0.16 0.12 0.07
1.69 1.36 1.31 1.40 1.31 1.50 1.65 1.47 1.35 1.29 1.37 1.37 1.33 1.26 1.11 0.92 0.79 0.90 0.95 1.15 1.22 0.86 0.80 1.01 0.97 0.95 0.76 0.68 0.72 0.70 0.62 0.54 0.42 0.31 0.23 0.19 0.16 0.11
1.10 1.08 0.97 1.12 1.38 1.24 1.61 1.68 1.44 1.32 1.28 1.44 1.39 1.20 1.16 1.09 1.31 1.64 1.54 1.16 0.90 0.69 0.76 1.16 0.97 0.87 0.69 0.64 0.76 0.71 0.66 0.62 0.55 0.46 0.41 0.34 0.26 0.21
1.10 1.30 1.24 1.11 1.29 1.39 1.47 1.65 1.56 1.42 1.35 1.46 1.18 0.90 0.88 0.98 1.22 1.30 1.32 1.24 1.28 0.87 0.66 0.79 0.56 0.54 0.47 0.45 0.65 0.69 0.76 0.75 0.79 0.69 0.53 0.40 0.28 0.22
0.62 0.73 0.86 0.84 1.08 1.22 1.24 1.39 1.56 1.57 1.54 1.53 1.32 1.21 1.09 0.93 0.98 1.19 1.28 1.11 1.07 0.82 0.63 0.51 0.50 0.63 0.61 0.55 0.56 0.74 0.68 0.70 0.71 0.60 0.48 0.42 0.35 0.32
0.28 0.40 0.65 0.45 0.61 0.66 0.62 0.53 0.57 0.59 0.71 0.88 0.95 0.97 0.88 0.82 0.79 0.57 0.59 0.60 0.68 0.72 0.59 0.54 0.58 0.68 0.88 0.68 0.52 0.63 0.70 0.67 0.62 0.59 0.50 0.46 0.44 0.43
0.29 0.37 0.48 0.61 0.55 0.57 0.60 0.53 0.61 0.69 0.87 0.86 0.84 0.81 0.72 0.61 0.49 0.46 0.42 0.60 0.62 0.42 0.35 0.54 0.56 0.52 0.49 0.30 0.36 0.45 0.42 0.44 0.55 0.57 0.48 0.43 0.42 0.42
0.44 0.40 0.46 0.63 0.52 0.52 0.55 0.58 0.64 0.63 0.51 0.51 0.54 0.55 0.53 0.50 0.47 0.40 0.41 0.53 0.44 0.47 0.53 0.60 0.37 0.24 0.26 0.26 0.27 0.35 0.38 0.34 0.35 0.36 0.34 0.41 0.43 0.44
0.22 0.25 0.27 0.26 0.24 0.24 0.27 0.28 0.27 0.21 0.20 0.24 0.25 0.27 0.29 0.33 0.45 0.59 0.69 0.63 0.55 0.47 0.50 0.34 0.19 0.22 0.22 0.12 0.11 0.19 0.38 0.40 0.31 0.30 0.35 0.35 0.37 0.40
0.14 0.14 0.14 0.14 0.16 0.17 0.19 0.17 0.15 0.17 0.19 0.19 0.20 0.23 0.27 0.31 0.34 0.34 0.39 0.43 0.51 0.57 0.50 0.40 0.27 0.24 0.25 0.16 0.13 0.23 0.26 0.25 0.25 0.22 0.22 0.30 0.35 0.33
0.08 0.06 0.06 0.06 0.07 0.08 0.07 0.08 0.09 0.13 0.15 0.13 0.15 0.17 0.21 0.22 0.24 0.24 0.27 0.32 0.36 0.31 0.41 0.44 0.35 0.25 0.16 0.13 0.19 0.12 0.11 0.09 0.09 0.13 0.22 0.28 0.24 0.17
0.06 0.04 0.04 0.03 0.04 0.05 0.05 0.05 0.06 0.08 0.04 0.04 0.06 0.08 0.09 0.10 0.15 0.21 0.26 0.28 0.29 0.28 0.25 0.29 0.36 0.41 0.40 0.25 0.07 0.05 0.06 0.06 0.08 0.10 0.12 0.16 0.16 0.15
0.04 0.03 0.03 0.04 0.04 0.04 0.04 0.04 0.05 0.04 0.04 0.04 0.04 0.05 0.07 0.11 0.24 0.16 0.18 0.21 0.28 0.24 0.18 0.20 0.21 0.15 0.12 0.08 0.06 0.02 0.02 0.04 0.09 0.12 0.09 0.05 0.03 0.05
0.05 0.06 0.03 0.02 0.03 0.04 0.04 0.04 0.04 0.05 0.06 0.07 0.07 0.09 0.10 0.09 0.10 0.12 0.13 0.13 0.14 0.18 0.20 0.17 0.14 0.09 0.03 0.02 0.08 0.04 0.02 0.03 0.05 0.05 0.07 0.12 0.12 0.09
0.05 0.06 0.05 0.02 0.02 0.02 0.02 0.02 0.02 0.04 0.05 0.03 0.03 0.05 0.07 0.07 0.08 0.08 0.10 0.15 0.16 0.15 0.14 0.10 0.04 0.05 0.18 0.28 0.24 0.08 0.10 0.06 0.01 0.03 0.07 0.16 0.16 0.11
0.09 0.06 0.03 0.03 0.03 0.03 0.02 0.02 0.03 0.05 0.04 0.02 0.02 0.02 0.03 0.03 0.05 0.05 0.08 0.11 0.12 0.11 0.10 0.14 0.20 0.23 0.24 0.12 0.09 0.05 0.07 0.19 0.19 0.09 0.04 0.06 0.09 0.04
0.06 0.05 0.05 0.05 0.05 0.04 0.04 0.03 0.02 0.03 0.03 0.02 0.02 0.01 0.02 0.02 0.03 0.05 0.07 0.09 0.11 0.18 0.22 0.27 0.20 0.17 0.14 0.13 0.21 0.12 0.07 0.15 0.23 0.22 0.24 0.16 0.02 0.00

GFSNE_prec_precacc24_240.txt.gz
Total_Precipitation_Accumulation
0.17 0.15 0.10 0.07 0.05 0.06 0.05 0.04 0.03 0.00 0.00 0.00 0.00 0.00 0.00 0.00 0.00 0.00 0.00 0.00 0.00 0.00 0.00 0.00 0.00 0.00 0.01 0.03 0.03 0.04 0.03 0.02 0.02 0.02 0.02 0.01 0.02 0.02
0.16 0.07 0.04 0.03 0.04 0.04 0.04 0.06 0.07 0.03 0.01 0.01 0.01 0.01 0.01 0.00 0.00 0.00 0.01 0.02 0.05 0.07 0.05 0.05 0.10 0.17 0.19 0.14 0.08 0.03 0.02 0.02 0.02 0.02 0.02 0.01 0.02 0.02
0.22 0.18 0.11 0.15 0.06 0.04 0.06 0.07 0.06 0.08 0.07 0.12 0.08 0.12 0.12 0.11 0.14 0.13 0.15 0.16 0.18 0.22 0.33 0.46 0.44 0.30 0.15 0.08 0.05 0.04 0.03 0.02 0.01 0.01 0.02 0.01 0.01 0.02
0.31 0.22 0.23 0.28 0.22 0.15 0.14 0.27 0.35 0.43 0.42 0.48 0.47 0.44 0.39 0.37 0.35 0.31 0.32 0.31 0.40 0.48 0.49 0.37 0.27 0.19 0.13 0.08 0.06 0.07 0.07 0.07 0.06 0.04 0.04 0.03 0.02 0.03
0.53 0.45 0.33 0.29 0.30 0.26 0.19 0.29 0.49 0.59 0.61 0.61 0.57 0.45 0.44 0.48 0.45 0.45 0.49 0.43 0.47 0.54 0.54 0.42 0.31 0.24 0.21 0.22 0.23 0.22 0.18 0.14 0.10 0.10 0.10 0.09 0.07 0.07
1.28 1.15 1.00 0.98 0.91 0.78 0.64 0.52 0.58 0.58 0.50 0.49 0.53 0.51 0.55 0.58 0.53 0.62 0.66 0.56 0.47 0.47 0.49 0.49 0.42 0.36 0.35 0.32 0.28 0.26 0.27 0.27 0.24 0.23 0.21 0.20 0.18 0.15
0.68 0.70 0.73 0.78 0.97 1.09 1.12 1.02 1.02 1.20 1.35 1.31 1.11 1.01 1.00 0.93 0.78 0.62 0.56 0.54 0.49 0.36 0.35 0.49 0.58 0.63 0.65 0.68 0.60 0.54 0.50 0.50 0.47 0.43 0.41 0.35 0.29 0.25
1.54 1.21 1.21 1.30 1.18 1.30 1.43 1.29 1.18 1.17 1.41 1.50 1.45 1.37 1.17 0.97 0.88 1.05 1.12 1.25 1.23 0.88 0.82 1.03 0.99 0.96 0.77 0.68 0.73 0.73 0.66 0.60 0.49 0.41 0.36 0.34 0.36 0.37
0.89 0.87 0.82 0.98 1.26 1.07 1.38 1.50 1.31 1.23 1.22 1.40 1.34 1.17 1.16 1.10 1.30 1.70 1.68 1.39 1.06 0.80 0.85 1.21 0.99 0.88 0.70 0.64 0.77 0.73 0.68 0.63 0.57 0.51 0.53 0.54 0.52 0.49
0.67 0.86 0.90 0.83 1.09 1.24 1.33 1.55 1.46 1.32 1.26 1.38 1.12 0.83 0.82 0.93 1.17 1.29 1.36 1.30 1.34 0.94 0.71 0.81 0.58 0.56 0.48 0.45 0.66 0.69 0.76 0.76 0.81 0.78 0.68 0.58 0.49 0.47
0.31 0.41 0.57 0.55 0.86 0.98 0.99 1.22 1.43 1.47 1.45 1.43 1.25 1.15 1.03 0.92 0.97 1.18 1.28 1.08 1.05 0.79 0.60 0.50 0.49 0.62 0.60 0.54 0.56 0.74 0.68 0.70 0.73 0.64 0.55 0.51 0.49 0.52
0.09 0.16 0.36 0.16 0.30 0.36 0.36 0.31 0.36 0.42 0.55 0.76 0.87 0.93 0.90 0.86 0.85 0.58 0.60 0.61 0.68 0.68 0.57 0.53 0.57 0.67 0.88 0.67 0.51 0.63 0.69 0.67 0.63 0.60 0.53 0.52 0.57 0.64
0.02 0.03 0.08 0.23 0.22 0.27 0.32 0.28 0.41 0.53 0.74 0.76 0.79 0.81 0.75 0.66 0.57 0.50 0.44 0.60 0.61 0.42 0.36 0.54 0.55 0.51 0.49 0.30 0.35 0.44 0.41 0.43 0.55 0.58 0.50 0.47 0.49 0.53
0.06 0.08 0.17 0.34 0.29 0.34 0.43 0.51 0.60 0.61 0.50 0.50 0.53 0.55 0.54 0.52 0.50 0.47 0.48 0.57 0.46 0.47 0.56 0.63 0.38 0.24 0.26 0.26 0.27 0.34 0.37 0.33 0.35 0.36 0.35 0.44 0.47 0.50
0.12 0.20 0.24 0.22 0.20 0.20 0.25 0.27 0.27 0.21 0.20 0.24 0.26 0.28 0.29 0.33 0.45 0.60 0.75 0.70 0.60 0.52 0.56 0.39 0.24 0.26 0.26 0.16 0.14 0.20 0.39 0.40 0.32 0.31 0.37 0.39 0.42 0.48
0.10 0.11 0.11 0.12 0.15 0.17 0.19 0.18 0.15 0.17 0.20 0.20 0.21 0.23 0.27 0.30 0.32 0.32 0.38 0.42 0.52 0.60 0.55 0.47 0.35 0.30 0.28 0.19 0.16 0.25 0.27 0.25 0.25 0.22 0.23 0.32 0.37 0.36
0.08 0.06 0.06 0.06 0.07 0.08 0.08 0.08 0.09 0.13 0.15 0.13 0.15 0.17 0.20 0.22 0.24 0.23 0.25 0.30 0.33 0.30 0.40 0.45 0.40 0.29 0.19 0.15 0.21 0.14 0.12 0.09 0.08 0.13 0.23 0.29 0.26 0.19
0.06 0.04 0.04 0.03 0.04 0.05 0.05 0.05 0.06 0.07 0.04 0.04 0.06 0.07 0.08 0.09 0.13 0.19 0.23 0.25 0.26 0.29 0.26 0.30 0.36 0.42 0.43 0.28 0.10 0.07 0.07 0.07 0.10 0.11 0.14 0.17 0.17 0.17
0.04 0.03 0.04 0.04 0.04 0.04 0.04 0.04 0.05 0.04 0.04 0.03 0.03 0.04 0.05 0.08 0.22 0.13 0.14 0.17 0.23 0.22 0.17 0.18 0.21 0.16 0.14 0.11 0.09 0.05 0.04 0.06 0.09 0.12 0.09 0.05 0.04 0.05
0.06 0.06 0.03 0.02 0.03 0.04 0.03 0.03 0.04 0.05 0.05 0.06 0.06 0.07 0.08 0.07 0.08 0.09 0.10 0.10 0.09 0.15 0.17 0.15 0.12 0.08 0.04 0.04 0.09 0.06 0.02 0.03 0.05 0.05 0.07 0.12 0.12 0.11
0.06 0.06 0.05 0.02 0.02 0.02 0.02 0.02 0.02 0.04 0.05 0.02 0.02 0.03 0.05 0.05 0.06 0.06 0.08 0.14 0.13 0.12 0.13 0.10 0.07 0.08 0.15 0.24 0.22 0.08 0.08 0.06 0.01 0.02 0.07 0.17 0.16 0.11
0.09 0.06 0.03 0.03 0.03 0.03 0.02 0.02 0.02 0.05 0.04 0.02 0.02 0.01 0.01 0.02 0.02 0.03 0.05 0.08 0.09 0.08 0.07 0.11 0.14 0.18 0.21 0.11 0.06 0.04 0.06 0.18 0.18 0.09 0.04 0.06 0.09 0.04
0.06 0.05 0.05 0.05 0.05 0.04 0.03 0.03 0.03 0.03 0.03 0.02 0.01 0.01 0.01 0.01 0.01 0.02 0.04 0.05 0.08 0.14 0.16 0.22 0.17 0.13 0.10 0.09 0.17 0.11 0.06 0.14 0.23 0.22 0.24 0.16 0.02 0.00

GFSNE_prec_precacc24_246.txt.gz
Total_Precipitation_Accumulation
0.19 0.16 0.11 0.08 0.05 0.07 0.06 0.05 0.03 0.00 0.00 0.00 0.00 0.00 0.00 0.00 0.00 0.00 0.00 0.00 0.00 0.00 0.00 0.00 0.00 0.00 0.01 0.03 0.03 0.04 0.03 0.02 0.02 0.02 0.02 0.02 0.02 0.02
0.19 0.09 0.04 0.04 0.05 0.04 0.04 0.06 0.07 0.02 0.00 0.01 0.01 0.01 0.01 0.00 0.00 0.00 0.01 0.01 0.04 0.07 0.05 0.05 0.10 0.17 0.19 0.14 0.08 0.03 0.02 0.02 0.02 0.02 0.02 0.01 0.02 0.02
0.29 0.18 0.08 0.17 0.04 0.03 0.05 0.04 0.02 0.04 0.00 0.03 0.01 0.02 0.02 0.01 0.03 0.05 0.05 0.06 0.10 0.19 0.33 0.46 0.44 0.30 0.15 0.08 0.05 0.04 0.03 0.02 0.01 0.01 0.02 0.01 0.01 0.02
0.39 0.25 0.20 0.21 0.14 0.08 0.05 0.03 0.02 0.04 0.02 0.02 0.05 0.04 0.04 0.08 0.08 0.07 0.07 0.19 0.31 0.43 0.48 0.37 0.27 0.19 0.13 0.08 0.06 0.07 0.07 0.07 0.06 0.04 0.04 0.03 0.02 0.03
0.62 0.53 0.36 0.34 0.28 0.22 0.12 0.09 0.09 0.08 0.05 0.03 0.03 0.05 0.04 0.05 0.06 0.12 0.20 0.25 0.37 0.47 0.49 0.38 0.28 0.22 0.20 0.21 0.23 0.22 0.18 0.14 0.10 0.10 0.10 0.09 0.07 0.07
1.28 1.20 1.06 1.05 0.94 0.78 0.62 0.38 0.38 0.35 0.23 0.17 0.14 0.09 0.07 0.10 0.17 0.27 0.31 0.33 0.36 0.38 0.40 0.39 0.33 0.32 0.33 0.31 0.28 0.26 0.27 0.27 0.24 0.23 0.21 0.20 0.21 0.24
0.75 0.68 0.70 0.75 0.95 1.03 1.03 0.93 0.83 0.91 0.96 0.80 0.56 0.43 0.42 0.40 0.39 0.39 0.35 0.37 0.32 0.24 0.26 0.39 0.51 0.60 0.65 0.68 0.61 0.55 0.51 0.50 0.48 0.45 0.46 0.46 0.48 0.48
2.18 1.52 1.27 1.17 0.95 0.97 1.09 1.01 0.77 0.65 0.76 0.80 0.80 0.81 0.74 0.62 0.62 0.75 0.78 0.87 0.82 0.65 0.73 0.92 0.91 0.89 0.75 0.68 0.75 0.75 0.69 0.62 0.52 0.46 0.47 0.50 0.58 0.68
1.70 1.60 1.46 1.57 1.54 1.22 1.22 1.25 1.34 1.27 1.10 1.16 1.08 0.92 0.92 0.88 1.09 1.52 1.47 1.21 0.88 0.62 0.71 0.96 0.83 0.77 0.65 0.62 0.77 0.75 0.70 0.66 0.60 0.57 0.61 0.63 0.64 0.66
1.24 1.47 1.53 1.29 1.54 1.78 1.69 1.82 1.77 1.54 1.42 1.52 1.11 0.77 0.73 0.75 0.93 0.94 0.96 0.97 0.92 0.68 0.57 0.60 0.45 0.48 0.45 0.46 0.69 0.73 0.81 0.79 0.83 0.79 0.70 0.63 0.58 0.58
0.45 0.48 0.70 0.79 0.94 0.88 0.97 1.15 1.35 1.48 1.48 1.42 1.18 0.91 0.68 0.58 0.61 0.79 0.91 0.73 0.74 0.60 0.47 0.40 0.39 0.47 0.51 0.50 0.54 0.75 0.69 0.71 0.74 0.64 0.55 0.52 0.52 0.58
0.17 0.11 0.20 0.15 0.30 0.35 0.37 0.30 0.29 0.25 0.33 0.57 0.72 0.62 0.52 0.48 0.67 0.38 0.34 0.44 0.50 0.44 0.32 0.33 0.38 0.52 0.73 0.62 0.51 0.63 0.70 0.67 0.63 0.60 0.53 0.53 0.58 0.67
0.18 0.08 0.03 0.10 0.10 0.15 0.18 0.14 0.23 0.28 0.45 0.42 0.39 0.40 0.40 0.38 0.42 0.44 0.30 0.35 0.41 0.31 0.27 0.42 0.41 0.40 0.44 0.27 0.31 0.43 0.42 0.44 0.56 0.58 0.50 0.47 0.49 0.54
0.06 0.07 0.10 0.14 0.09 0.11 0.12 0.14 0.20 0.21 0.14 0.17 0.19 0.22 0.22 0.25 0.25 0.28 0.37 0.47 0.40 0.37 0.49 0.61 0.35 0.21 0.23 0.23 0.24 0.31 0.36 0.33 0.35 0.35 0.34 0.44 0.47 0.52
0.07 0.08 0.09 0.07 0.05 0.04 0.07 0.08 0.09 0.06 0.06 0.07 0.08 0.11 0.13 0.16 0.27 0.42 0.63 0.70 0.59 0.51 0.55 0.36 0.27 0.31 0.30 0.21 0.18 0.23 0.41 0.40 0.33 0.32 0.37 0.38 0.42 0.52
0.04 0.04 0.04 0.03 0.03 0.03 0.05 0.04 0.03 0.06 0.09 0.08 0.09 0.12 0.14 0.17 0.22 0.25 0.31 0.37 0.48 0.54 0.51 0.45 0.37 0.33 0.30 0.22 0.19 0.27 0.30 0.26 0.26 0.23 0.23 0.31 0.37 0.36
0.02 0.00 0.01 0.01 0.02 0.01 0.01 0.02 0.03 0.07 0.09 0.08 0.10 0.12 0.14 0.16 0.17 0.18 0.21 0.25 0.27 0.26 0.36 0.41 0.39 0.34 0.23 0.18 0.21 0.16 0.15 0.13 0.13 0.18 0.26 0.31 0.28 0.21
0.03 0.01 0.00 0.01 0.01 0.01 0.02 0.03 0.04 0.06 0.04 0.04 0.05 0.06 0.07 0.07 0.11 0.16 0.20 0.22 0.23 0.26 0.24 0.27 0.29 0.32 0.32 0.23 0.13 0.08 0.08 0.08 0.12 0.15 0.17 0.19 0.18 0.19
0.02 0.01 0.01 0.01 0.01 0.01 0.01 0.02 0.03 0.03 0.03 0.03 0.03 0.04 0.05 0.07 0.19 0.10 0.12 0.14 0.18 0.18 0.16 0.16 0.16 0.13 0.12 0.10 0.10 0.06 0.04 0.05 0.08 0.11 0.08 0.04 0.03 0.05
0.05 0.04 0.02 0.01 0.01 0.02 0.02 0.02 0.03 0.04 0.05 0.06 0.06 0.07 0.07 0.06 0.05 0.06 0.07 0.07 0.07 0.10 0.14 0.15 0.11 0.07 0.04 0.05 0.07 0.08 0.07 0.04 0.05 0.05 0.06 0.10 0.12 0.12
0.05 0.05 0.04 0.02 0.01 0.02 0.02 0.02 0.02 0.04 0.05 0.02 0.02 0.03 0.04 0.05 0.04 0.04 0.07 0.15 0.14 0.08 0.10 0.11 0.09 0.16 0.10 0.12 0.14 0.12 0.11 0.10 0.06 0.04 0.06 0.14 0.13 0.11
0.09 0.07 0.04 0.03 0.03 0.03 0.02 0.02 0.03 0.06 0.04 0.02 0.01 0.01 0.01 0.01 0.01 0.02 0.03 0.06 0.07 0.05 0.07 0.13 0.18 0.20 0.15 0.10 0.08 0.07 0.10 0.16 0.15 0.08 0.04 0.05 0.06 0.04
0.07 0.06 0.06 0.06 0.06 0.05 0.04 0.03 0.03 0.04 0.04 0.02 0.01 0.01 0.01 0.01 0.01 0.02 0.03 0.05 0.08 0.12 0.15 0.18 0.17 0.16 0.13 0.11 0.13 0.13 0.12 0.13 0.18 0.18 0.19 0.13 0.02 0.00

GFSNE_prec_precacc24_252.txt.gz
Total_Precipitation_Accumulation
0.18 0.16 0.11 0.07 0.03 0.06 0.06 0.05 0.03 0.00 0.00 0.00 0.00 0.00 0.00 0.00 0.00 0.00 0.00 0.00 0.00 0.00 0.00 0.00 0.00 0.00 0.00 0.01 0.01 0.01 0.01 0.01 0.01 0.02 0.02 0.02 0.02 0.02
0.19 0.08 0.04 0.04 0.04 0.03 0.04 0.06 0.07 0.02 0.00 0.00 0.01 0.01 0.01 0.00 0.00 0.00 0.00 0.00 0.01 0.01 0.01 0.00 0.00 0.02 0.04 0.05 0.03 0.00 0.00 0.00 0.01 0.01 0.01 0.01 0.02 0.02
0.31 0.18 0.07 0.16 0.04 0.03 0.04 0.04 0.02 0.04 0.00 0.03 0.01 0.02 0.01 0.00 0.00 0.00 0.00 0.00 0.01 0.02 0.01 0.01 0.03 0.04 0.03 0.02 0.01 0.00 0.00 0.01 0.00 0.00 0.01 0.00 0.00 0.02
0.45 0.26 0.19 0.20 0.13 0.07 0.04 0.03 0.02 0.04 0.02 0.02 0.05 0.03 0.01 0.02 0.01 0.00 0.00 0.00 0.00 0.00 0.00 0.00 0.01 0.04 0.04 0.03 0.03 0.04 0.05 0.06 0.05 0.04 0.03 0.02 0.02 0.03
0.71 0.57 0.35 0.34 0.26 0.19 0.10 0.08 0.07 0.07 0.04 0.02 0.01 0.04 0.02 0.01 0.01 0.03 0.03 0.00 0.00 0.01 0.03 0.05 0.07 0.10 0.12 0.15 0.17 0.17 0.13 0.10 0.08 0.07 0.06 0.06 0.06 0.06
1.38 1.24 1.10 1.06 0.91 0.75 0.59 0.35 0.35 0.31 0.20 0.13 0.11 0.06 0.03 0.02 0.01 0.01 0.01 0.01 0.02 0.04 0.08 0.15 0.16 0.16 0.17 0.17 0.17 0.18 0.19 0.19 0.19 0.18 0.16 0.16 0.17 0.21
0.83 0.70 0.71 0.73 0.88 0.98 0.98 0.88 0.79 0.84 0.84 0.63 0.42 0.30 0.17 0.07 0.05 0.07 0.06 0.08 0.11 0.12 0.13 0.17 0.23 0.30 0.37 0.45 0.44 0.43 0.41 0.41 0.41 0.39 0.38 0.39 0.42 0.44
2.01 1.01 0.69 0.74 0.77 0.88 1.02 0.94 0.67 0.53 0.57 0.57 0.59 0.62 0.54 0.44 0.45 0.54 0.61 0.69 0.68 0.54 0.60 0.66 0.61 0.55 0.44 0.43 0.50 0.54 0.52 0.49 0.44 0.42 0.44 0.51 0.60 0.72
2.66 2.37 1.63 1.29 1.06 0.84 0.96 0.99 1.13 1.07 0.78 0.66 0.62 0.57 0.57 0.58 0.81 1.21 1.29 1.15 0.86 0.57 0.57 0.63 0.48 0.42 0.33 0.34 0.45 0.48 0.48 0.48 0.49 0.51 0.57 0.60 0.62 0.64
1.48 1.96 2.12 1.72 1.46 1.43 1.24 1.23 1.18 1.00 0.94 0.98 0.81 0.58 0.57 0.75 0.98 1.01 1.01 1.04 0.91 0.61 0.45 0.39 0.19 0.20 0.18 0.21 0.37 0.41 0.53 0.57 0.67 0.72 0.67 0.61 0.55 0.55
0.71 0.83 1.16 1.37 1.41 1.13 0.96 1.00 1.06 1.11 1.26 1.25 1.11 1.04 0.86 0.69 0.71 0.99 1.18 0.97 0.91 0.66 0.48 0.38 0.30 0.28 0.27 0.24 0.22 0.41 0.40 0.46 0.52 0.52 0.49 0.49 0.49 0.55
0.33 0.42 0.59 0.54 0.64 0.65 0.71 0.82 0.74 0.65 0.58 0.68 0.94 1.03 0.93 0.81 0.89 0.60 0.56 0.66 0.61 0.40 0.22 0.27 0.27 0.33 0.44 0.32 0.25 0.32 0.42 0.43 0.41 0.42 0.42 0.44 0.50 0.60
0.44 0.33 0.33 0.47 0.41 0.33 0.43 0.54 0.69 0.62 0.67 0.55 0.57 0.67 0.71 0.68 0.66 0.68 0.55 0.51 0.53 0.32 0.25 0.37 0.25 0.18 0.21 0.13 0.09 0.14 0.17 0.23 0.34 0.37 0.35 0.36 0.39 0.46
0.39 0.40 0.32 0.34 0.32 0.30 0.31 0.37 0.48 0.47 0.30 0.26 0.38 0.49 0.50 0.49 0.41 0.44 0.57 0.58 0.47 0.34 0.44 0.58 0.29 0.14 0.13 0.14 0.10 0.09 0.10 0.12 0.17 0.19 0.20 0.34 0.39 0.46
0.21 0.27 0.35 0.31 0.23 0.23 0.27 0.29 0.22 0.14 0.16 0.19 0.19 0.25 0.33 0.39 0.47 0.57 0.77 0.86 0.67 0.54 0.56 0.43 0.37 0.31 0.26 0.21 0.16 0.13 0.22 0.20 0.20 0.22 0.28 0.31 0.36 0.46
0.06 0.09 0.15 0.22 0.29 0.26 0.22 0.21 0.21 0.21 0.17 0.14 0.16 0.19 0.20 0.22 0.27 0.31 0.36 0.43 0.54 0.49 0.45 0.47 0.42 0.36 0.32 0.24 0.18 0.19 0.21 0.19 0.18 0.18 0.22 0.31 0.38 0.37
0.01 0.01 0.03 0.05 0.09 0.16 0.24 0.24 0.22 0.23 0.20 0.16 0.15 0.12 0.12 0.13 0.16 0.20 0.24 0.28 0.29 0.25 0.31 0.40 0.43 0.38 0.28 0.21 0.21 0.18 0.16 0.16 0.17 0.22 0.30 0.36 0.35 0.27
0.02 0.01 0.00 0.01 0.03 0.03 0.04 0.07 0.13 0.18 0.18 0.17 0.13 0.10 0.08 0.07 0.08 0.12 0.17 0.20 0.22 0.24 0.26 0.32 0.32 0.33 0.34 0.29 0.25 0.14 0.14 0.11 0.13 0.15 0.19 0.24 0.25 0.24
0.01 0.01 0.00 0.00 0.01 0.01 0.01 0.02 0.03 0.03 0.04 0.07 0.09 0.10 0.10 0.09 0.17 0.07 0.07 0.09 0.14 0.17 0.17 0.19 0.17 0.15 0.16 0.14 0.14 0.10 0.06 0.07 0.10 0.14 0.11 0.08 0.06 0.08
0.01 0.01 0.01 0.01 0.01 0.01 0.01 0.01 0.01 0.02 0.03 0.04 0.04 0.05 0.08 0.09 0.09 0.08 0.08 0.07 0.08 0.11 0.14 0.14 0.11 0.07 0.07 0.06 0.07 0.08 0.09 0.04 0.04 0.05 0.05 0.08 0.11 0.15
0.02 0.02 0.03 0.02 0.01 0.02 0.02 0.01 0.02 0.03 0.04 0.01 0.01 0.01 0.03 0.04 0.05 0.06 0.09 0.18 0.17 0.11 0.13 0.13 0.12 0.21 0.11 0.12 0.13 0.13 0.14 0.15 0.09 0.07 0.09 0.13 0.10 0.08
0.07 0.06 0.03 0.03 0.03 0.03 0.02 0.02 0.03 0.06 0.04 0.02 0.01 0.00 0.00 0.01 0.01 0.02 0.04 0.07 0.08 0.07 0.09 0.17 0.23 0.24 0.15 0.10 0.07 0.07 0.12 0.17 0.19 0.17 0.14 0.11 0.07 0.06
0.08 0.07 0.07 0.06 0.06 0.05 0.04 0.04 0.03 0.04 0.04 0.02 0.01 0.02 0.01 0.01 0.02 0.02 0.03 0.04 0.07 0.10 0.12 0.15 0.17 0.19 0.17 0.15 0.16 0.14 0.14 0.14 0.15 0.16 0.17 0.14 0.06 0.05